Time,TemperatureF,DewpointF,PressureIn,WindDirection,WindDirectionDegrees,WindSpeedMPH,WindSpeedGustMPH,Humidity,HourlyPrecipIn,Conditions,Clouds,dailyrainin,SoftwareType,DateUTC
2013-11-05 00:02:00,65.2,63.7,29.90,ESE,123,1.0,2.0,95,0.00,,,0.01,Wunderground v.1.15,2013-11-05 06:02:00,
2013-11-05 00:03:00,65.2,63.7,29.90,ESE,123,1.0,2.0,95,0.00,,,0.00,Wunderground v.1.15,2013-11-05 06:03:00,
2013-11-05 00:04:00,65.2,63.7,29.90,ESE,123,1.0,3.0,95,0.00,,,0.00,Wunderground v.1.15,2013-11-05 06:04:00,
2013-11-05 00:07:00,65.2,63.7,29.90,ESE,123,1.0,3.0,95,0.00,,,0.00,Wunderground v.1.15,2013-11-05 06:07:00,
2013-11-05 00:09:00,65.2,63.7,29.90,ESE,120,1.0,3.0,95,0.00,,,0.00,Wunderground v.1.15,2013-11-05 06:09:00,
2013-11-05 00:12:00,65.2,63.7,29.90,SE,126,1.0,2.0,95,0.00,,,0.00,Wunderground v.1.15,2013-11-05 06:12:00,
2013-11-05 00:13:00,65.2,63.7,29.90,SE,126,1.0,2.0,95,0.00,,,0.00,Wunderground v.1.15,2013-11-05 06:13:00,
2013-11-05 00:15:00,65.2,63.7,29.90,SE,126,1.0,2.0,95,0.00,,,0.00,Wunderground v.1.15,2013-11-05 06:15:00,
2013-11-05 00:18:00,65.2,63.7,29.90,SE,126,1.0,2.0,95,0.00,,,0.00,Wunderground v.1.15,2013-11-05 06:18:00,
2013-11-05 00:19:00,65.2,63.7,29.90,SE,126,1.0,3.0,95,0.00,,,0.00,Wunderground v.1.15,2013-11-05 06:19:00,
2013-11-05 00:22:00,65.0,63.5,29.90,SE,126,1.0,1.0,95,0.00,,,0.00,Wunderground v.1.15,2013-11-05 06:22:00,
2013-11-05 00:23:00,65.0,63.5,29.90,SE,126,1.0,1.0,95,0.00,,,0.00,Wunderground v.1.15,2013-11-05 06:23:00,
2013-11-05 00:24:00,65.0,63.5,29.90,SE,126,1.0,1.0,95,0.00,,,0.00,Wunderground v.1.15,2013-11-05 06:24:00,
2013-11-05 00:25:00,65.0,63.5,29.90,SE,126,1.0,1.0,95,0.00,,,0.00,Wunderground v.1.15,2013-11-05 06:25:00,
2013-11-05 00:27:00,65.0,63.5,29.90,SE,126,0.0,1.0,95,0.00,,,0.00,Wunderground v.1.15,2013-11-05 06:27:00,
2013-11-05 00:28:00,65.0,63.5,29.90,SE,126,1.0,2.0,95,0.00,,,0.00,Wunderground v.1.15,2013-11-05 06:28:00,
2013-11-05 00:29:00,65.0,63.5,29.90,SE,126,1.0,2.0,95,0.00,,,0.00,Wunderground v.1.15,2013-11-05 06:29:00,
2013-11-05 00:32:00,65.2,63.7,29.89,SE,128,1.0,3.0,95,0.00,,,0.00,Wunderground v.1.15,2013-11-05 06:32:00,
2013-11-05 00:33:00,65.2,63.7,29.89,SE,130,1.0,3.0,95,0.00,,,0.00,Wunderground v.1.15,2013-11-05 06:33:00,
2013-11-05 00:38:00,65.2,63.7,29.89,SE,128,2.0,5.0,95,0.00,,,0.00,Wunderground v.1.15,2013-11-05 06:38:00,
2013-11-05 00:39:00,65.2,63.7,29.89,SE,127,2.0,5.0,95,0.00,,,0.00,Wunderground v.1.15,2013-11-05 06:39:00,
2013-11-05 00:42:00,65.2,63.7,29.89,SE,127,2.0,2.0,95,0.00,,,0.00,Wunderground v.1.15,2013-11-05 06:42:00,
2013-11-05 00:43:00,65.2,63.7,29.89,SE,127,2.0,2.0,95,0.00,,,0.00,Wunderground v.1.15,2013-11-05 06:43:00,
2013-11-05 00:45:00,65.2,63.7,29.89,SE,127,1.0,2.0,95,0.00,,,0.00,Wunderground v.1.15,2013-11-05 06:45:00,
2013-11-05 00:48:00,65.2,63.7,29.89,SE,127,1.0,2.0,95,0.00,,,0.00,Wunderground v.1.15,2013-11-05 06:48:00,
2013-11-05 00:52:00,65.2,63.7,29.89,SE,127,0.0,0.0,95,0.00,,,0.00,Wunderground v.1.15,2013-11-05 06:52:00,
2013-11-05 00:53:00,65.2,63.7,29.89,SE,127,0.0,0.0,95,0.00,,,0.00,Wunderground v.1.15,2013-11-05 06:53:00,
2013-11-05 00:54:00,65.2,63.7,29.89,SE,127,0.0,0.0,95,0.00,,,0.00,Wunderground v.1.15,2013-11-05 06:54:00,
2013-11-05 00:57:00,65.2,63.7,29.89,SE,127,1.0,3.0,95,0.00,,,0.00,Wunderground v.1.15,2013-11-05 06:57:00,
2013-11-05 01:02:00,65.2,63.7,29.89,SE,127,1.0,1.0,95,0.00,,,0.00,Wunderground v.1.15,2013-11-05 07:02:00,
2013-11-05 01:03:00,65.2,63.7,29.89,SE,127,1.0,3.0,95,0.00,,,0.00,Wunderground v.1.15,2013-11-05 07:03:00,
2013-11-05 01:05:00,65.2,63.7,29.89,SE,128,1.0,3.0,95,0.00,,,0.00,Wunderground v.1.15,2013-11-05 07:05:00,
2013-11-05 01:07:00,65.3,63.8,29.89,SE,128,1.0,3.0,95,0.00,,,0.00,Wunderground v.1.15,2013-11-05 07:07:00,
2013-11-05 01:12:00,65.3,64.1,29.89,SE,133,1.0,4.0,96,0.00,,,0.00,Wunderground v.1.15,2013-11-05 07:12:00,
2013-11-05 01:13:00,65.3,64.1,29.89,SE,133,1.0,4.0,96,0.00,,,0.00,Wunderground v.1.15,2013-11-05 07:13:00,
2013-11-05 01:14:00,65.3,64.1,29.89,SE,134,1.0,4.0,96,0.00,,,0.00,Wunderground v.1.15,2013-11-05 07:14:00,
2013-11-05 01:18:00,65.3,64.1,29.89,SE,131,2.0,4.0,96,0.00,,,0.00,Wunderground v.1.15,2013-11-05 07:18:00,
2013-11-05 01:22:00,65.3,64.1,29.89,SE,133,2.0,2.0,96,0.00,,,0.00,Wunderground v.1.15,2013-11-05 07:22:00,
2013-11-05 01:25:00,65.5,64.3,29.89,SE,131,2.0,2.0,96,0.00,,,0.00,Wunderground v.1.15,2013-11-05 07:25:00,
2013-11-05 01:26:00,65.5,64.3,29.89,SE,133,2.0,3.0,96,0.00,,,0.00,Wunderground v.1.15,2013-11-05 07:26:00,
2013-11-05 01:27:00,65.5,64.3,29.89,SE,133,2.0,3.0,96,0.00,,,0.00,Wunderground v.1.15,2013-11-05 07:27:00,
2013-11-05 01:29:00,65.5,64.3,29.89,SE,131,2.0,3.0,96,0.00,,,0.00,Wunderground v.1.15,2013-11-05 07:29:00,
2013-11-05 01:33:00,65.5,64.3,29.88,SE,134,2.0,3.0,96,0.00,,,0.00,Wunderground v.1.15,2013-11-05 07:33:00,
2013-11-05 01:34:00,65.5,64.3,29.88,SE,133,2.0,3.0,96,0.00,,,0.00,Wunderground v.1.15,2013-11-05 07:34:00,
2013-11-05 01:38:00,65.5,64.3,29.88,SE,134,2.0,3.0,96,0.00,,,0.00,Wunderground v.1.15,2013-11-05 07:38:00,
2013-11-05 01:39:00,65.5,64.3,29.88,SE,134,2.0,5.0,96,0.00,,,0.00,Wunderground v.1.15,2013-11-05 07:39:00,
2013-11-05 01:43:00,65.5,64.3,29.88,SE,124,2.0,3.0,96,0.00,,,0.00,Wunderground v.1.15,2013-11-05 07:43:00,
2013-11-05 01:44:00,65.5,64.3,29.88,SE,124,2.0,3.0,96,0.00,,,0.00,Wunderground v.1.15,2013-11-05 07:44:00,
2013-11-05 01:45:00,65.5,64.3,29.88,ESE,117,2.0,5.0,96,0.00,,,0.00,Wunderground v.1.15,2013-11-05 07:45:00,
2013-11-05 01:46:00,65.5,64.3,29.88,SE,130,2.0,5.0,96,0.00,,,0.00,Wunderground v.1.15,2013-11-05 07:46:00,
2013-11-05 01:52:00,65.5,64.3,29.88,SE,130,4.0,4.0,96,0.00,,,0.00,Wunderground v.1.15,2013-11-05 07:52:00,
2013-11-05 01:53:00,65.5,64.3,29.88,SE,130,4.0,4.0,96,0.00,,,0.00,Wunderground v.1.15,2013-11-05 07:53:00,
2013-11-05 01:55:00,65.5,64.3,29.88,SE,131,4.0,5.0,96,0.00,,,0.00,Wunderground v.1.15,2013-11-05 07:55:00,
2013-11-05 01:56:00,65.5,64.3,29.88,SE,131,4.0,5.0,96,0.00,,,0.00,Wunderground v.1.15,2013-11-05 07:56:00,
2013-11-05 01:57:00,65.5,64.3,29.88,SE,131,4.0,5.0,96,0.00,,,0.00,Wunderground v.1.15,2013-11-05 07:57:00,
2013-11-05 01:58:00,65.5,64.3,29.88,ESE,121,4.0,5.0,96,0.00,,,0.00,Wunderground v.1.15,2013-11-05 07:58:00,
2013-11-05 01:59:00,65.5,64.3,29.88,ESE,123,4.0,6.0,96,0.00,,,0.00,Wunderground v.1.15,2013-11-05 07:59:00,
2013-11-05 02:04:00,65.5,64.3,29.88,ESE,116,3.0,5.0,96,0.00,,,0.00,Wunderground v.1.15,2013-11-05 08:04:00,
2013-11-05 02:06:00,65.5,64.3,29.88,SE,124,3.0,7.0,96,0.00,,,0.00,Wunderground v.1.15,2013-11-05 08:06:00,
2013-11-05 02:07:00,65.5,64.3,29.88,ESE,117,3.0,7.0,96,0.00,,,0.00,Wunderground v.1.15,2013-11-05 08:07:00,
2013-11-05 02:09:00,65.5,64.3,29.88,ESE,114,4.0,7.0,96,0.00,,,0.00,Wunderground v.1.15,2013-11-05 08:09:00,
2013-11-05 02:12:00,65.5,64.3,29.88,SE,136,4.0,4.0,96,0.00,,,0.00,Wunderground v.1.15,2013-11-05 08:12:00,
2013-11-05 02:15:00,65.5,64.3,29.88,SE,124,4.0,6.0,96,0.00,,,0.00,Wunderground v.1.15,2013-11-05 08:15:00,
2013-11-05 02:16:00,65.3,64.1,29.88,ESE,114,4.0,6.0,96,0.00,,,0.00,Wunderground v.1.15,2013-11-05 08:16:00,
2013-11-05 02:17:00,65.3,64.1,29.87,ESE,113,4.0,6.0,96,0.00,,,0.00,Wunderground v.1.15,2013-11-05 08:17:00,
2013-11-05 02:22:00,65.3,64.1,29.87,SE,127,4.0,4.0,96,0.00,,,0.00,Wunderground v.1.15,2013-11-05 08:22:00,
2013-11-05 02:23:00,65.3,64.1,29.87,SE,128,4.0,4.0,96,0.00,,,0.00,Wunderground v.1.15,2013-11-05 08:23:00,
2013-11-05 02:24:00,65.3,64.1,29.87,SE,128,4.0,4.0,96,0.00,,,0.00,Wunderground v.1.15,2013-11-05 08:24:00,
2013-11-05 02:25:00,65.3,64.1,29.87,SE,128,4.0,4.0,96,0.00,,,0.00,Wunderground v.1.15,2013-11-05 08:25:00,
2013-11-05 02:26:00,65.3,64.1,29.87,SE,130,4.0,5.0,96,0.00,,,0.00,Wunderground v.1.15,2013-11-05 08:26:00,
2013-11-05 02:29:00,65.3,64.1,29.87,ESE,123,4.0,5.0,96,0.00,,,0.00,Wunderground v.1.15,2013-11-05 08:29:00,
2013-11-05 02:32:00,65.3,64.1,29.86,SE,144,4.0,6.0,96,0.00,,,0.00,Wunderground v.1.15,2013-11-05 08:32:00,
2013-11-05 02:34:00,65.3,64.1,29.86,SE,124,4.0,7.0,96,0.00,,,0.00,Wunderground v.1.15,2013-11-05 08:34:00,
2013-11-05 02:38:00,65.3,64.1,29.86,SE,140,5.0,7.0,96,0.00,,,0.00,Wunderground v.1.15,2013-11-05 08:38:00,
2013-11-05 02:39:00,65.3,64.1,29.86,SE,124,5.0,7.0,96,0.00,,,0.00,Wunderground v.1.15,2013-11-05 08:39:00,
2013-11-05 02:42:00,65.3,64.1,29.86,ESE,117,5.0,7.0,96,0.00,,,0.00,Wunderground v.1.15,2013-11-05 08:42:00,
2013-11-05 02:43:00,65.3,64.1,29.86,SE,133,5.0,8.0,96,0.00,,,0.00,Wunderground v.1.15,2013-11-05 08:43:00,
2013-11-05 02:48:00,65.3,64.1,29.86,SSE,152,4.0,8.0,96,0.00,,,0.00,Wunderground v.1.15,2013-11-05 08:48:00,
2013-11-05 02:49:00,65.3,64.1,29.86,SSE,152,4.0,8.0,96,0.00,,,0.00,Wunderground v.1.15,2013-11-05 08:49:00,
2013-11-05 02:52:00,65.3,64.1,29.86,ESE,120,4.0,5.0,96,0.00,,,0.00,Wunderground v.1.15,2013-11-05 08:52:00,
2013-11-05 02:54:00,65.3,64.1,29.86,SE,138,4.0,6.0,96,0.00,,,0.00,Wunderground v.1.15,2013-11-05 08:54:00,
2013-11-05 02:57:00,65.3,64.1,29.86,SE,140,4.0,7.0,96,0.00,,,0.00,Wunderground v.1.15,2013-11-05 08:57:00,
2013-11-05 02:58:00,65.3,64.1,29.86,SE,140,4.0,7.0,96,0.00,,,0.00,Wunderground v.1.15,2013-11-05 08:58:00,
2013-11-05 02:59:00,65.3,64.1,29.86,SE,140,4.0,7.0,96,0.00,,,0.00,Wunderground v.1.15,2013-11-05 08:59:00,
2013-11-05 03:02:00,65.3,64.1,29.86,SE,127,4.0,4.0,96,0.00,,,0.00,Wunderground v.1.15,2013-11-05 09:02:00,
2013-11-05 03:04:00,65.2,64.0,29.86,SE,128,3.0,4.0,96,0.00,,,0.00,Wunderground v.1.15,2013-11-05 09:04:00,
2013-11-05 03:05:00,65.2,64.0,29.86,SE,128,4.0,6.0,96,0.00,,,0.00,Wunderground v.1.15,2013-11-05 09:05:00,
2013-11-05 03:09:00,65.2,64.3,29.86,SE,126,5.0,7.0,97,0.00,,,0.00,Wunderground v.1.15,2013-11-05 09:09:00,
2013-11-05 03:12:00,65.3,64.4,29.86,SE,138,4.0,4.0,97,0.00,,,0.00,Wunderground v.1.15,2013-11-05 09:12:00,
2013-11-05 03:14:00,65.2,64.3,29.86,SE,131,4.0,4.0,97,0.00,,,0.00,Wunderground v.1.15,2013-11-05 09:14:00,
2013-11-05 03:16:00,65.2,64.3,29.86,SE,136,3.0,7.0,97,0.00,,,0.00,Wunderground v.1.15,2013-11-05 09:16:00,
2013-11-05 03:18:00,65.2,64.3,29.86,SE,141,4.0,7.0,97,0.00,,,0.00,Wunderground v.1.15,2013-11-05 09:18:00,
2013-11-05 03:19:00,65.3,64.4,29.86,SE,124,3.0,7.0,97,0.00,,,0.00,Wunderground v.1.15,2013-11-05 09:19:00,
2013-11-05 03:22:00,65.2,64.3,29.86,SE,126,4.0,4.0,97,0.00,,,0.00,Wunderground v.1.15,2013-11-05 09:22:00,
2013-11-05 03:24:00,65.2,64.3,29.86,SE,131,4.0,4.0,97,0.00,,,0.00,Wunderground v.1.15,2013-11-05 09:24:00,
2013-11-05 03:25:00,65.2,64.3,29.86,ESE,109,4.0,4.0,97,0.00,,,0.00,Wunderground v.1.15,2013-11-05 09:25:00,
2013-11-05 03:26:00,65.2,64.3,29.86,SSE,168,4.0,4.0,97,0.00,,,0.00,Wunderground v.1.15,2013-11-05 09:26:00,
2013-11-05 03:29:00,65.2,64.3,29.86,SE,145,3.0,4.0,97,0.00,,,0.00,Wunderground v.1.15,2013-11-05 09:29:00,
2013-11-05 03:32:00,65.2,64.3,29.87,East,93,2.0,5.0,97,0.00,,,0.00,Wunderground v.1.15,2013-11-05 09:32:00,
2013-11-05 03:34:00,65.2,64.3,29.87,SE,124,2.0,5.0,97,0.00,,,0.00,Wunderground v.1.15,2013-11-05 09:34:00,
2013-11-05 03:35:00,65.2,64.3,29.87,SE,124,2.0,5.0,97,0.00,,,0.00,Wunderground v.1.15,2013-11-05 09:35:00,
2013-11-05 03:42:00,65.2,64.3,29.87,SSE,147,4.0,4.0,97,0.00,,,0.00,Wunderground v.1.15,2013-11-05 09:42:00,
2013-11-05 03:43:00,65.2,64.3,29.87,SSE,147,3.0,4.0,97,0.00,,,0.00,Wunderground v.1.15,2013-11-05 09:43:00,
2013-11-05 03:45:00,65.2,64.3,29.87,SE,144,4.0,5.0,97,0.00,,,0.00,Wunderground v.1.15,2013-11-05 09:45:00,
2013-11-05 03:47:00,65.2,64.3,29.87,SE,136,4.0,5.0,97,0.00,,,0.00,Wunderground v.1.15,2013-11-05 09:47:00,
2013-11-05 03:48:00,65.2,64.3,29.87,SE,136,4.0,5.0,97,0.00,,,0.00,Wunderground v.1.15,2013-11-05 09:48:00,
2013-11-05 03:49:00,65.2,64.3,29.87,SE,136,3.0,5.0,97,0.00,,,0.00,Wunderground v.1.15,2013-11-05 09:49:00,
2013-11-05 03:54:00,65.0,64.1,29.87,SE,131,3.0,8.0,97,0.00,,,0.00,Wunderground v.1.15,2013-11-05 09:54:00,
2013-11-05 03:55:00,65.0,64.1,29.87,SE,131,3.0,8.0,97,0.00,,,0.00,Wunderground v.1.15,2013-11-05 09:55:00,
2013-11-05 03:56:00,65.0,64.1,29.87,SE,131,3.0,8.0,97,0.00,,,0.00,Wunderground v.1.15,2013-11-05 09:56:00,
2013-11-05 03:58:00,65.0,64.1,29.87,SE,131,3.0,8.0,97,0.00,,,0.00,Wunderground v.1.15,2013-11-05 09:58:00,
2013-11-05 04:02:00,65.0,64.1,29.87,ESE,120,3.0,3.0,97,0.00,,,0.00,Wunderground v.1.15,2013-11-05 10:02:00,
2013-11-05 04:05:00,65.0,64.4,29.87,SE,136,2.0,3.0,98,0.00,,,0.00,Wunderground v.1.15,2013-11-05 10:05:00,
2013-11-05 04:06:00,65.0,64.4,29.87,SE,137,2.0,3.0,98,0.00,,,0.00,Wunderground v.1.15,2013-11-05 10:06:00,
2013-11-05 04:07:00,65.0,64.4,29.87,SE,126,3.0,6.0,98,0.00,,,0.00,Wunderground v.1.15,2013-11-05 10:07:00,
2013-11-05 04:12:00,65.0,64.4,29.87,SE,133,3.0,3.0,98,0.00,,,0.00,Wunderground v.1.15,2013-11-05 10:12:00,
2013-11-05 04:13:00,65.0,64.4,29.87,SE,133,3.0,3.0,98,0.00,,,0.00,Wunderground v.1.15,2013-11-05 10:13:00,
2013-11-05 04:16:00,65.0,64.4,29.87,ESE,120,2.0,4.0,98,0.00,,,0.00,Wunderground v.1.15,2013-11-05 10:16:00,
2013-11-05 04:18:00,65.0,64.4,29.87,ESE,120,2.0,4.0,98,0.00,,,0.00,Wunderground v.1.15,2013-11-05 10:18:00,
2013-11-05 04:22:00,65.0,64.4,29.87,ESE,120,2.0,2.0,98,0.00,,,0.00,Wunderground v.1.15,2013-11-05 10:22:00,
2013-11-05 04:23:00,65.0,64.4,29.87,ESE,120,1.0,2.0,98,0.00,,,0.00,Wunderground v.1.15,2013-11-05 10:23:00,
2013-11-05 04:24:00,65.0,64.4,29.87,ESE,120,1.0,2.0,98,0.00,,,0.00,Wunderground v.1.15,2013-11-05 10:24:00,
2013-11-05 04:26:00,65.0,64.4,29.87,ESE,120,1.0,2.0,98,0.00,,,0.00,Wunderground v.1.15,2013-11-05 10:26:00,
2013-11-05 04:28:00,65.0,64.4,29.87,ESE,120,1.0,2.0,98,0.00,,,0.00,Wunderground v.1.15,2013-11-05 10:28:00,
2013-11-05 04:29:00,65.0,64.4,29.87,ESE,120,0.0,2.0,98,0.00,,,0.00,Wunderground v.1.15,2013-11-05 10:29:00,
2013-11-05 04:33:00,65.0,64.4,29.87,ESE,120,0.0,0.0,98,0.00,,,0.00,Wunderground v.1.15,2013-11-05 10:33:00,
2013-11-05 04:34:00,65.2,64.6,29.87,ESE,120,0.0,0.0,98,0.00,,,0.00,Wunderground v.1.15,2013-11-05 10:34:00,
2013-11-05 04:35:00,65.2,64.6,29.87,ESE,120,0.0,0.0,98,0.00,,,0.00,Wunderground v.1.15,2013-11-05 10:35:00,
2013-11-05 04:42:00,65.2,64.6,29.87,ESE,120,1.0,1.0,98,0.00,,,0.00,Wunderground v.1.15,2013-11-05 10:42:00,
2013-11-05 04:43:00,65.2,64.6,29.87,ESE,120,1.0,2.0,98,0.00,,,0.00,Wunderground v.1.15,2013-11-05 10:43:00,
2013-11-05 04:44:00,65.2,64.6,29.87,ESE,120,1.0,2.0,98,0.00,,,0.00,Wunderground v.1.15,2013-11-05 10:44:00,
2013-11-05 04:47:00,65.2,64.9,29.86,ESE,120,1.0,3.0,99,0.00,,,0.00,Wunderground v.1.15,2013-11-05 10:47:00,
2013-11-05 04:49:00,65.2,64.9,29.86,ESE,120,1.0,3.0,99,0.00,,,0.00,Wunderground v.1.15,2013-11-05 10:49:00,
2013-11-05 04:52:00,65.3,65.0,29.86,ESE,120,1.0,3.0,99,0.00,,,0.00,Wunderground v.1.15,2013-11-05 10:52:00,
2013-11-05 04:53:00,65.3,65.0,29.86,ESE,121,1.0,3.0,99,0.00,,,0.00,Wunderground v.1.15,2013-11-05 10:53:00,
2013-11-05 04:55:00,65.3,65.0,29.86,ESE,121,1.0,3.0,99,0.00,,,0.00,Wunderground v.1.15,2013-11-05 10:55:00,
2013-11-05 04:59:00,65.3,65.0,29.86,ESE,121,1.0,3.0,99,0.00,,,0.00,Wunderground v.1.15,2013-11-05 10:59:00,
2013-11-05 05:02:00,65.3,65.0,29.86,SE,127,1.0,1.0,99,0.00,,,0.00,Wunderground v.1.15,2013-11-05 11:02:00,
2013-11-05 05:03:00,65.3,65.0,29.86,SE,127,1.0,1.0,99,0.00,,,0.00,Wunderground v.1.15,2013-11-05 11:03:00,
2013-11-05 05:04:00,65.3,65.0,29.86,SE,127,1.0,1.0,99,0.00,,,0.00,Wunderground v.1.15,2013-11-05 11:04:00,
2013-11-05 05:07:00,65.3,65.0,29.86,SE,128,1.0,2.0,99,0.00,,,0.00,Wunderground v.1.15,2013-11-05 11:07:00,
2013-11-05 05:09:00,65.5,65.2,29.86,SE,128,1.0,2.0,99,0.00,,,0.00,Wunderground v.1.15,2013-11-05 11:09:00,
2013-11-05 05:12:00,65.5,65.2,29.86,SE,128,1.0,2.0,99,0.00,,,0.00,Wunderground v.1.15,2013-11-05 11:12:00,
2013-11-05 05:13:00,65.5,65.2,29.86,SE,128,1.0,3.0,99,0.00,,,0.00,Wunderground v.1.15,2013-11-05 11:13:00,
2013-11-05 05:14:00,65.5,65.2,29.86,SE,130,1.0,3.0,99,0.00,,,0.00,Wunderground v.1.15,2013-11-05 11:14:00,
2013-11-05 05:15:00,65.5,65.2,29.86,SE,130,1.0,3.0,99,0.00,,,0.00,Wunderground v.1.15,2013-11-05 11:15:00,
2013-11-05 05:17:00,65.5,65.2,29.86,SE,130,1.0,3.0,99,0.00,,,0.00,Wunderground v.1.15,2013-11-05 11:17:00,
2013-11-05 05:19:00,65.5,65.2,29.86,SE,130,1.0,3.0,99,0.00,,,0.00,Wunderground v.1.15,2013-11-05 11:19:00,
2013-11-05 05:22:00,65.5,65.2,29.86,SE,130,1.0,1.0,99,0.00,,,0.00,Wunderground v.1.15,2013-11-05 11:22:00,
2013-11-05 05:23:00,65.5,65.2,29.86,SE,130,0.0,1.0,99,0.00,,,0.00,Wunderground v.1.15,2013-11-05 11:23:00,
2013-11-05 05:24:00,65.5,65.2,29.86,SE,130,0.0,1.0,99,0.00,,,0.00,Wunderground v.1.15,2013-11-05 11:24:00,
2013-11-05 05:25:00,65.5,65.2,29.86,SE,130,0.0,1.0,99,0.00,,,0.00,Wunderground v.1.15,2013-11-05 11:25:00,
2013-11-05 05:32:00,65.5,65.2,29.86,SE,130,1.0,1.0,99,0.00,,,0.00,Wunderground v.1.15,2013-11-05 11:32:00,
2013-11-05 05:33:00,65.5,65.2,29.86,SE,130,1.0,1.0,99,0.00,,,0.00,Wunderground v.1.15,2013-11-05 11:33:00,
2013-11-05 05:34:00,65.6,65.3,29.86,SE,130,1.0,1.0,99,0.00,,,0.00,Wunderground v.1.15,2013-11-05 11:34:00,
2013-11-05 05:35:00,65.5,65.2,29.86,SE,130,1.0,1.0,99,0.00,,,0.00,Wunderground v.1.15,2013-11-05 11:35:00,
2013-11-05 05:38:00,65.5,65.2,29.86,SE,130,0.0,1.0,99,0.00,,,0.00,Wunderground v.1.15,2013-11-05 11:38:00,
2013-11-05 05:39:00,65.5,65.2,29.86,SE,130,0.0,1.0,99,0.00,,,0.00,Wunderground v.1.15,2013-11-05 11:39:00,
2013-11-05 05:43:00,65.5,65.2,29.86,SE,130,0.0,0.0,99,0.00,,,0.00,Wunderground v.1.15,2013-11-05 11:43:00,
2013-11-05 05:46:00,65.5,65.2,29.86,SE,130,0.0,1.0,99,0.00,,,0.00,Wunderground v.1.15,2013-11-05 11:46:00,
2013-11-05 05:47:00,65.6,65.3,29.86,SE,130,0.0,1.0,99,0.00,,,0.00,Wunderground v.1.15,2013-11-05 11:47:00,
2013-11-05 05:49:00,65.6,65.3,29.86,SE,130,0.0,1.0,99,0.00,,,0.00,Wunderground v.1.15,2013-11-05 11:49:00,
2013-11-05 05:52:00,65.6,65.3,29.86,SE,130,0.0,2.0,99,0.00,,,0.00,Wunderground v.1.15,2013-11-05 11:52:00,
2013-11-05 05:53:00,65.6,65.3,29.86,SE,130,1.0,2.0,99,0.00,,,0.00,Wunderground v.1.15,2013-11-05 11:53:00,
2013-11-05 05:54:00,65.6,65.3,29.86,SE,130,1.0,2.0,99,0.00,,,0.00,Wunderground v.1.15,2013-11-05 11:54:00,
2013-11-05 05:55:00,65.6,65.3,29.86,SE,130,1.0,2.0,99,0.00,,,0.00,Wunderground v.1.15,2013-11-05 11:55:00,
2013-11-05 05:57:00,65.6,65.3,29.86,SE,130,1.0,2.0,99,0.00,,,0.00,Wunderground v.1.15,2013-11-05 11:57:00,
2013-11-05 05:58:00,65.6,65.3,29.86,SE,130,1.0,2.0,99,0.00,,,0.00,Wunderground v.1.15,2013-11-05 11:58:00,
2013-11-05 05:59:00,65.6,65.3,29.86,SE,130,1.0,2.0,99,0.00,,,0.00,Wunderground v.1.15,2013-11-05 11:59:00,
2013-11-05 06:03:00,65.6,65.3,29.86,ESE,113,1.0,4.0,99,0.00,,,0.00,Wunderground v.1.15,2013-11-05 12:03:00,
2013-11-05 06:04:00,65.6,65.3,29.86,ESE,113,1.0,4.0,99,0.00,,,0.00,Wunderground v.1.15,2013-11-05 12:04:00,
2013-11-05 06:05:00,65.6,65.3,29.86,ESE,113,1.0,4.0,99,0.00,,,0.00,Wunderground v.1.15,2013-11-05 12:05:00,
2013-11-05 06:09:00,65.6,65.3,29.86,ESE,113,1.0,4.0,99,0.00,,,0.00,Wunderground v.1.15,2013-11-05 12:09:00,
2013-11-05 06:12:00,65.6,65.3,29.86,ESE,113,1.0,1.0,99,0.00,,,0.00,Wunderground v.1.15,2013-11-05 12:12:00,
2013-11-05 06:14:00,65.6,65.3,29.86,ESE,113,1.0,3.0,99,0.00,,,0.00,Wunderground v.1.15,2013-11-05 12:14:00,
2013-11-05 06:16:00,65.6,65.3,29.86,ESE,113,1.0,3.0,99,0.00,,,0.00,Wunderground v.1.15,2013-11-05 12:16:00,
2013-11-05 06:17:00,65.6,65.3,29.87,ESE,113,1.0,3.0,99,0.00,,,0.00,Wunderground v.1.15,2013-11-05 12:17:00,
2013-11-05 06:19:00,65.8,65.5,29.87,ESE,113,1.0,3.0,99,0.00,,,0.00,Wunderground v.1.15,2013-11-05 12:19:00,
2013-11-05 06:22:00,65.8,65.5,29.87,SE,145,1.0,1.0,99,0.00,,,0.00,Wunderground v.1.15,2013-11-05 12:22:00,
2013-11-05 06:24:00,65.8,65.5,29.87,SE,145,1.0,2.0,99,0.00,,,0.00,Wunderground v.1.15,2013-11-05 12:24:00,
2013-11-05 06:25:00,65.8,65.5,29.87,SE,145,1.0,2.0,99,0.00,,,0.00,Wunderground v.1.15,2013-11-05 12:25:00,
2013-11-05 06:27:00,65.8,65.5,29.87,SE,145,1.0,2.0,99,0.00,,,0.00,Wunderground v.1.15,2013-11-05 12:27:00,
2013-11-05 06:28:00,65.8,65.5,29.87,SE,145,1.0,2.0,99,0.00,,,0.00,Wunderground v.1.15,2013-11-05 12:28:00,
2013-11-05 06:29:00,65.8,65.5,29.87,SE,145,1.0,2.0,99,0.00,,,0.00,Wunderground v.1.15,2013-11-05 12:29:00,
2013-11-05 06:33:00,65.8,65.5,29.87,SE,145,1.0,1.0,99,0.00,,,0.00,Wunderground v.1.15,2013-11-05 12:33:00,
2013-11-05 06:34:00,65.8,65.5,29.87,ESE,106,1.0,1.0,99,0.00,,,0.00,Wunderground v.1.15,2013-11-05 12:34:00,
2013-11-05 06:36:00,65.8,65.5,29.87,ESE,106,1.0,1.0,99,0.00,,,0.00,Wunderground v.1.15,2013-11-05 12:36:00,
2013-11-05 06:37:00,65.8,65.5,29.87,ESE,106,1.0,1.0,99,0.00,,,0.00,Wunderground v.1.15,2013-11-05 12:37:00,
2013-11-05 06:38:00,65.8,65.5,29.87,ESE,106,1.0,1.0,99,0.00,,,0.00,Wunderground v.1.15,2013-11-05 12:38:00,
2013-11-05 06:42:00,65.8,65.5,29.87,ESE,106,1.0,1.0,99,0.00,,,0.00,Wunderground v.1.15,2013-11-05 12:42:00,
2013-11-05 06:43:00,65.8,65.5,29.87,ESE,106,1.0,2.0,99,0.00,,,0.00,Wunderground v.1.15,2013-11-05 12:43:00,
2013-11-05 06:45:00,66.0,65.7,29.87,ESE,106,1.0,2.0,99,0.00,,,0.00,Wunderground v.1.15,2013-11-05 12:45:00,
2013-11-05 06:46:00,66.0,65.7,29.87,ESE,106,1.0,2.0,99,0.00,,,0.00,Wunderground v.1.15,2013-11-05 12:46:00,
2013-11-05 06:49:00,66.0,66.0,29.87,ESE,102,1.0,6.0,100,0.00,,,0.00,Wunderground v.1.15,2013-11-05 12:49:00,
2013-11-05 06:52:00,66.0,66.0,29.87,ESE,103,2.0,3.0,100,0.00,,,0.00,Wunderground v.1.15,2013-11-05 12:52:00,
2013-11-05 06:54:00,66.0,66.0,29.87,ESE,109,2.0,3.0,100,0.00,,,0.00,Wunderground v.1.15,2013-11-05 12:54:00,
2013-11-05 06:56:00,66.0,66.0,29.87,ESE,109,2.0,4.0,100,0.00,,,0.00,Wunderground v.1.15,2013-11-05 12:56:00,
2013-11-05 07:02:00,66.0,66.0,29.87,East,97,2.0,2.0,100,0.00,,,0.00,Wunderground v.1.15,2013-11-05 13:02:00,
2013-11-05 07:04:00,66.0,66.0,29.87,ESE,103,2.0,2.0,100,0.00,,,0.00,Wunderground v.1.15,2013-11-05 13:04:00,
2013-11-05 07:06:00,66.1,66.1,29.87,ESE,103,2.0,2.0,100,0.00,,,0.00,Wunderground v.1.15,2013-11-05 13:06:00,
2013-11-05 07:08:00,66.1,66.1,29.87,ESE,110,2.0,3.0,100,0.00,,,0.00,Wunderground v.1.15,2013-11-05 13:08:00,
2013-11-05 07:09:00,66.1,66.1,29.87,ESE,110,2.0,3.0,100,0.00,,,0.00,Wunderground v.1.15,2013-11-05 13:09:00,
2013-11-05 07:12:00,66.1,66.1,29.87,ESE,110,2.0,2.0,100,0.00,,,0.00,Wunderground v.1.15,2013-11-05 13:12:00,
2013-11-05 07:14:00,66.1,66.1,29.87,ESE,110,1.0,2.0,100,0.00,,,0.00,Wunderground v.1.15,2013-11-05 13:14:00,
2013-11-05 07:15:00,66.3,66.3,29.87,East,96,1.0,3.0,100,0.00,,,0.00,Wunderground v.1.15,2013-11-05 13:15:00,
2013-11-05 07:16:00,66.3,66.3,29.87,East,96,2.0,3.0,100,0.00,,,0.00,Wunderground v.1.15,2013-11-05 13:16:00,
2013-11-05 07:19:00,66.3,66.3,29.88,East,96,1.0,3.0,100,0.00,,,0.00,Wunderground v.1.15,2013-11-05 13:19:00,
2013-11-05 07:23:00,66.3,66.3,29.88,East,82,1.0,2.0,100,0.00,,,0.00,Wunderground v.1.15,2013-11-05 13:23:00,
2013-11-05 07:25:00,66.3,66.3,29.88,ESE,119,1.0,5.0,100,0.00,,,0.00,Wunderground v.1.15,2013-11-05 13:25:00,
2013-11-05 07:26:00,66.3,66.3,29.88,ESE,119,1.0,5.0,100,0.00,,,0.00,Wunderground v.1.15,2013-11-05 13:26:00,
2013-11-05 07:27:00,66.3,66.3,29.88,ESE,119,1.0,5.0,100,0.00,,,0.00,Wunderground v.1.15,2013-11-05 13:27:00,
2013-11-05 07:32:00,66.3,66.3,29.89,SE,128,3.0,3.0,100,0.00,,,0.00,Wunderground v.1.15,2013-11-05 13:32:00,
2013-11-05 07:34:00,66.4,66.4,29.89,SE,131,3.0,3.0,100,0.00,,,0.00,Wunderground v.1.15,2013-11-05 13:34:00,
2013-11-05 07:36:00,66.4,66.4,29.89,SE,131,3.0,3.0,100,0.00,,,0.00,Wunderground v.1.15,2013-11-05 13:36:00,
2013-11-05 07:37:00,66.4,66.4,29.89,ESE,116,3.0,5.0,100,0.00,,,0.00,Wunderground v.1.15,2013-11-05 13:37:00,
2013-11-05 07:38:00,66.4,66.4,29.89,ESE,117,3.0,5.0,100,0.00,,,0.00,Wunderground v.1.15,2013-11-05 13:38:00,
2013-11-05 07:39:00,66.4,66.4,29.89,ESE,117,3.0,5.0,100,0.00,,,0.00,Wunderground v.1.15,2013-11-05 13:39:00,
2013-11-05 07:42:00,66.4,66.4,29.89,SE,126,3.0,3.0,100,0.00,,,0.00,Wunderground v.1.15,2013-11-05 13:42:00,
2013-11-05 07:45:00,66.6,66.6,29.89,ESE,123,2.0,4.0,100,0.00,,,0.00,Wunderground v.1.15,2013-11-05 13:45:00,
2013-11-05 07:46:00,66.6,66.6,29.89,SE,124,2.0,4.0,100,0.00,,,0.00,Wunderground v.1.15,2013-11-05 13:46:00,
2013-11-05 07:47:00,66.6,66.6,29.89,ESE,121,3.0,6.0,100,0.00,,,0.00,Wunderground v.1.15,2013-11-05 13:47:00,
2013-11-05 07:48:00,66.6,66.6,29.89,SE,134,3.0,6.0,100,0.00,,,0.00,Wunderground v.1.15,2013-11-05 13:48:00,
2013-11-05 07:52:00,66.6,66.6,29.89,SE,128,3.0,5.0,100,0.00,,,0.00,Wunderground v.1.15,2013-11-05 13:52:00,
2013-11-05 07:53:00,66.6,66.6,29.89,SE,128,3.0,5.0,100,0.00,,,0.00,Wunderground v.1.15,2013-11-05 13:53:00,
2013-11-05 07:55:00,66.6,66.6,29.89,SE,127,3.0,5.0,100,0.00,,,0.00,Wunderground v.1.15,2013-11-05 13:55:00,
2013-11-05 07:57:00,66.8,66.8,29.89,SE,128,3.0,5.0,100,0.00,,,0.00,Wunderground v.1.15,2013-11-05 13:57:00,
2013-11-05 07:59:00,66.8,66.8,29.89,SE,131,3.0,5.0,100,0.00,,,0.00,Wunderground v.1.15,2013-11-05 13:59:00,
2013-11-05 08:02:00,66.8,66.8,29.90,SE,136,3.0,6.0,100,0.00,,,0.00,Wunderground v.1.15,2013-11-05 14:02:00,
2013-11-05 08:04:00,66.8,66.8,29.90,SE,136,3.0,6.0,100,0.00,,,0.00,Wunderground v.1.15,2013-11-05 14:04:00,
2013-11-05 08:05:00,66.8,66.8,29.90,SE,136,2.0,6.0,100,0.00,,,0.00,Wunderground v.1.15,2013-11-05 14:05:00,
2013-11-05 08:07:00,66.8,66.8,29.90,SE,133,3.0,6.0,100,0.00,,,0.00,Wunderground v.1.15,2013-11-05 14:07:00,
2013-11-05 08:12:00,66.8,66.8,29.90,ESE,120,3.0,6.0,100,0.00,,,0.00,Wunderground v.1.15,2013-11-05 14:12:00,
2013-11-05 08:13:00,66.8,66.8,29.90,ESE,119,3.0,6.0,100,0.00,,,0.00,Wunderground v.1.15,2013-11-05 14:13:00,
2013-11-05 08:14:00,66.8,66.8,29.90,ESE,119,3.0,6.0,100,0.00,,,0.00,Wunderground v.1.15,2013-11-05 14:14:00,
2013-11-05 08:18:00,66.9,66.9,29.90,ESE,117,2.0,6.0,100,0.00,,,0.00,Wunderground v.1.15,2013-11-05 14:18:00,
2013-11-05 08:19:00,66.9,66.9,29.90,SE,130,2.0,6.0,100,0.00,,,0.00,Wunderground v.1.15,2013-11-05 14:19:00,
2013-11-05 08:23:00,66.8,66.8,29.90,SE,133,2.0,3.0,100,0.00,,,0.00,Wunderground v.1.15,2013-11-05 14:23:00,
2013-11-05 08:25:00,66.8,66.8,29.90,SE,136,2.0,3.0,100,0.00,,,0.00,Wunderground v.1.15,2013-11-05 14:25:00,
2013-11-05 08:28:00,66.9,66.9,29.90,ESE,112,2.0,4.0,100,0.00,,,0.00,Wunderground v.1.15,2013-11-05 14:28:00,
2013-11-05 08:29:00,66.9,66.9,29.90,ESE,112,3.0,4.0,100,0.00,,,0.00,Wunderground v.1.15,2013-11-05 14:29:00,
2013-11-05 08:32:00,66.8,66.8,29.91,SE,144,2.0,2.0,100,0.00,,,0.00,Wunderground v.1.15,2013-11-05 14:32:00,
2013-11-05 08:33:00,66.8,66.8,29.91,SE,144,2.0,3.0,100,0.00,,,0.00,Wunderground v.1.15,2013-11-05 14:33:00,
2013-11-05 08:34:00,66.9,66.9,29.91,SE,144,2.0,3.0,100,0.00,,,0.00,Wunderground v.1.15,2013-11-05 14:34:00,
2013-11-05 08:38:00,66.8,66.8,29.91,SE,141,3.0,6.0,100,0.00,,,0.00,Wunderground v.1.15,2013-11-05 14:38:00,
2013-11-05 08:39:00,66.9,66.9,29.91,SE,141,2.0,6.0,100,0.00,,,0.00,Wunderground v.1.15,2013-11-05 14:39:00,
2013-11-05 08:42:00,66.9,66.9,29.91,SE,141,2.0,2.0,100,0.00,,,0.00,Wunderground v.1.15,2013-11-05 14:42:00,
2013-11-05 08:43:00,66.9,66.9,29.91,SE,141,2.0,2.0,100,0.00,,,0.00,Wunderground v.1.15,2013-11-05 14:43:00,
2013-11-05 08:44:00,66.9,66.9,29.91,SE,143,2.0,2.0,100,0.00,,,0.00,Wunderground v.1.15,2013-11-05 14:44:00,
2013-11-05 08:48:00,66.9,66.9,29.91,SE,127,2.0,4.0,100,0.00,,,0.00,Wunderground v.1.15,2013-11-05 14:48:00,
2013-11-05 08:49:00,66.9,66.9,29.91,SE,127,2.0,4.0,100,0.00,,,0.00,Wunderground v.1.15,2013-11-05 14:49:00,
2013-11-05 08:53:00,66.9,66.9,29.91,SE,133,2.0,5.0,100,0.00,,,0.00,Wunderground v.1.15,2013-11-05 14:53:00,
2013-11-05 08:54:00,66.9,66.9,29.91,ESE,106,2.0,5.0,100,0.00,,,0.00,Wunderground v.1.15,2013-11-05 14:54:00,
2013-11-05 08:55:00,66.9,66.9,29.91,ESE,106,2.0,5.0,100,0.00,,,0.00,Wunderground v.1.15,2013-11-05 14:55:00,
2013-11-05 08:56:00,66.9,66.9,29.91,ESE,106,2.0,5.0,100,0.00,,,0.00,Wunderground v.1.15,2013-11-05 14:56:00,
2013-11-05 08:58:00,67.1,67.1,29.91,ESE,113,2.0,5.0,100,0.00,,,0.00,Wunderground v.1.15,2013-11-05 14:58:00,
2013-11-05 08:59:00,67.1,67.1,29.91,ESE,113,3.0,5.0,100,0.00,,,0.00,Wunderground v.1.15,2013-11-05 14:59:00,
2013-11-05 09:03:00,67.1,67.1,29.91,SE,127,2.0,4.0,100,0.00,,,0.00,Wunderground v.1.15,2013-11-05 15:03:00,
2013-11-05 09:05:00,67.1,67.1,29.91,SE,134,3.0,6.0,100,0.00,,,0.00,Wunderground v.1.15,2013-11-05 15:05:00,
2013-11-05 09:06:00,67.1,67.1,29.91,SE,134,3.0,6.0,100,0.00,,,0.00,Wunderground v.1.15,2013-11-05 15:06:00,
2013-11-05 09:12:00,67.1,67.1,29.91,ESE,117,3.0,3.0,100,0.00,,,0.00,Wunderground v.1.15,2013-11-05 15:12:00,
2013-11-05 09:13:00,67.1,67.1,29.91,ESE,117,3.0,3.0,100,0.00,,,0.00,Wunderground v.1.15,2013-11-05 15:13:00,
2013-11-05 09:16:00,67.1,67.1,29.91,ESE,117,3.0,4.0,100,0.00,,,0.00,Wunderground v.1.15,2013-11-05 15:16:00,
2013-11-05 09:18:00,67.1,67.1,29.91,ESE,117,3.0,4.0,100,0.00,,,0.00,Wunderground v.1.15,2013-11-05 15:18:00,
2013-11-05 09:22:00,67.1,67.1,29.91,ESE,117,3.0,4.0,100,0.00,,,0.00,Wunderground v.1.15,2013-11-05 15:22:00,
2013-11-05 09:23:00,67.1,67.1,29.91,ESE,121,3.0,6.0,100,0.00,,,0.00,Wunderground v.1.15,2013-11-05 15:23:00,
2013-11-05 09:24:00,67.3,67.3,29.91,ESE,119,3.0,6.0,100,0.00,,,0.00,Wunderground v.1.15,2013-11-05 15:24:00,
2013-11-05 09:25:00,67.3,67.3,29.91,ESE,119,3.0,6.0,100,0.00,,,0.00,Wunderground v.1.15,2013-11-05 15:25:00,
2013-11-05 09:26:00,67.3,67.3,29.91,ESE,119,3.0,6.0,100,0.00,,,0.00,Wunderground v.1.15,2013-11-05 15:26:00,
2013-11-05 09:32:00,67.3,67.3,29.91,SE,133,2.0,2.0,100,0.00,,,0.00,Wunderground v.1.15,2013-11-05 15:32:00,
2013-11-05 09:33:00,67.3,67.3,29.91,SE,133,2.0,2.0,100,0.00,,,0.00,Wunderground v.1.15,2013-11-05 15:33:00,
2013-11-05 09:34:00,67.3,67.3,29.91,SE,133,2.0,2.0,100,0.00,,,0.00,Wunderground v.1.15,2013-11-05 15:34:00,
2013-11-05 09:38:00,67.3,67.3,29.91,SE,134,2.0,5.0,100,0.00,,,0.00,Wunderground v.1.15,2013-11-05 15:38:00,
2013-11-05 09:39:00,67.3,67.3,29.91,SE,134,2.0,5.0,100,0.00,,,0.00,Wunderground v.1.15,2013-11-05 15:39:00,
2013-11-05 09:43:00,67.3,67.3,29.91,SE,136,1.0,2.0,100,0.00,,,0.00,Wunderground v.1.15,2013-11-05 15:43:00,
2013-11-05 09:45:00,67.3,67.3,29.91,SE,134,1.0,4.0,100,0.00,,,0.00,Wunderground v.1.15,2013-11-05 15:45:00,
2013-11-05 09:46:00,67.3,67.3,29.91,SE,136,1.0,4.0,100,0.00,,,0.00,Wunderground v.1.15,2013-11-05 15:46:00,
2013-11-05 09:49:00,67.4,67.4,29.91,SE,136,1.0,4.0,100,0.00,,,0.00,Wunderground v.1.15,2013-11-05 15:49:00,
2013-11-05 09:52:00,67.4,67.4,29.91,SE,136,2.0,2.0,100,0.00,,,0.00,Wunderground v.1.15,2013-11-05 15:52:00,
2013-11-05 09:53:00,67.4,67.4,29.91,SE,137,2.0,5.0,100,0.00,,,0.00,Wunderground v.1.15,2013-11-05 15:53:00,
2013-11-05 09:55:00,67.4,67.4,29.91,SE,137,2.0,5.0,100,0.00,,,0.00,Wunderground v.1.15,2013-11-05 15:55:00,
2013-11-05 09:57:00,67.4,67.4,29.91,SE,137,2.0,5.0,100,0.00,,,0.00,Wunderground v.1.15,2013-11-05 15:57:00,
2013-11-05 09:58:00,67.6,67.6,29.91,SE,137,2.0,5.0,100,0.00,,,0.00,Wunderground v.1.15,2013-11-05 15:58:00,
2013-11-05 10:02:00,67.6,67.6,29.90,SE,137,1.0,1.0,100,0.00,,,0.00,Wunderground v.1.15,2013-11-05 16:02:00,
2013-11-05 10:03:00,67.8,67.8,29.90,SE,137,1.0,1.0,100,0.00,,,0.00,Wunderground v.1.15,2013-11-05 16:03:00,
2013-11-05 10:04:00,67.8,67.8,29.90,SE,137,1.0,1.0,100,0.00,,,0.00,Wunderground v.1.15,2013-11-05 16:04:00,
2013-11-05 10:05:00,67.8,67.8,29.90,SE,137,1.0,1.0,100,0.00,,,0.00,Wunderground v.1.15,2013-11-05 16:05:00,
2013-11-05 10:06:00,67.8,67.8,29.90,SE,137,1.0,1.0,100,0.00,,,0.00,Wunderground v.1.15,2013-11-05 16:06:00,
2013-11-05 10:08:00,67.8,67.8,29.90,SE,137,1.0,2.0,100,0.00,,,0.00,Wunderground v.1.15,2013-11-05 16:08:00,
2013-11-05 10:09:00,67.8,67.8,29.90,SE,137,1.0,2.0,100,0.00,,,0.00,Wunderground v.1.15,2013-11-05 16:09:00,
2013-11-05 10:12:00,68.1,68.1,29.90,SE,137,1.0,1.0,100,0.00,,,0.00,Wunderground v.1.15,2013-11-05 16:12:00,
2013-11-05 10:13:00,68.1,68.1,29.90,South,172,1.0,5.0,100,0.00,,,0.00,Wunderground v.1.15,2013-11-05 16:13:00,
2013-11-05 10:14:00,68.1,68.1,29.90,South,172,1.0,5.0,100,0.00,,,0.00,Wunderground v.1.15,2013-11-05 16:14:00,
2013-11-05 10:16:00,68.3,68.3,29.90,SE,140,1.0,6.0,100,0.00,,,0.00,Wunderground v.1.15,2013-11-05 16:16:00,
2013-11-05 10:18:00,68.3,68.3,29.91,SE,140,2.0,6.0,100,0.00,,,0.00,Wunderground v.1.15,2013-11-05 16:18:00,
2013-11-05 10:19:00,68.4,68.4,29.91,SE,140,2.0,6.0,100,0.00,,,0.00,Wunderground v.1.15,2013-11-05 16:19:00,
2013-11-05 10:22:00,68.4,68.4,29.91,SSE,158,2.0,2.0,100,0.00,,,0.00,Wunderground v.1.15,2013-11-05 16:22:00,
2013-11-05 10:24:00,68.6,68.6,29.91,SE,126,3.0,8.0,100,0.00,,,0.00,Wunderground v.1.15,2013-11-05 16:24:00,
2013-11-05 10:25:00,68.6,68.6,29.91,SE,126,3.0,8.0,100,0.00,,,0.00,Wunderground v.1.15,2013-11-05 16:25:00,
2013-11-05 10:28:00,68.8,68.5,29.91,SE,124,4.0,11.0,99,0.00,,,0.00,Wunderground v.1.15,2013-11-05 16:28:00,
2013-11-05 10:32:00,68.9,68.6,29.90,SE,133,5.0,5.0,99,0.00,,,0.00,Wunderground v.1.15,2013-11-05 16:32:00,
2013-11-05 10:33:00,69.1,68.8,29.90,ESE,123,5.0,7.0,99,0.00,,,0.00,Wunderground v.1.15,2013-11-05 16:33:00,
2013-11-05 10:34:00,69.1,68.8,29.90,SSE,160,6.0,7.0,99,0.00,,,0.00,Wunderground v.1.15,2013-11-05 16:34:00,
2013-11-05 10:36:00,69.1,68.8,29.90,SE,127,6.0,7.0,99,0.00,,,0.00,Wunderground v.1.15,2013-11-05 16:36:00,
2013-11-05 10:39:00,69.4,68.8,29.90,SE,127,7.0,11.0,98,0.00,,,0.00,Wunderground v.1.15,2013-11-05 16:39:00,
2013-11-05 10:42:00,69.6,68.4,29.90,ESE,121,8.0,11.0,96,0.00,,,0.00,Wunderground v.1.15,2013-11-05 16:42:00,
2013-11-05 10:44:00,69.9,68.7,29.90,SE,136,8.0,11.0,96,0.00,,,0.00,Wunderground v.1.15,2013-11-05 16:44:00,
2013-11-05 10:45:00,69.9,68.7,29.90,SSE,147,8.0,11.0,96,0.00,,,0.00,Wunderground v.1.15,2013-11-05 16:45:00,
2013-11-05 10:48:00,70.3,68.5,29.90,SSE,168,8.0,11.0,94,0.00,,,0.00,Wunderground v.1.15,2013-11-05 16:48:00,
2013-11-05 10:52:00,70.3,67.9,29.90,South,175,7.0,7.0,92,0.00,,,0.00,Wunderground v.1.15,2013-11-05 16:52:00,
2013-11-05 10:53:00,70.4,68.0,29.90,ESE,123,6.0,7.0,92,0.00,,,0.00,Wunderground v.1.15,2013-11-05 16:53:00,
2013-11-05 10:54:00,70.4,68.0,29.90,SE,128,6.0,7.0,92,0.00,,,0.00,Wunderground v.1.15,2013-11-05 16:54:00,
2013-11-05 10:55:00,70.6,68.2,29.90,ESE,117,6.0,7.0,92,0.00,,,0.00,Wunderground v.1.15,2013-11-05 16:55:00,
2013-11-05 10:59:00,71.1,68.0,29.90,ESE,123,5.0,9.0,90,0.00,,,0.00,Wunderground v.1.15,2013-11-05 16:59:00,
2013-11-05 11:02:00,71.3,67.9,29.90,SE,137,6.0,6.0,89,0.00,,,0.00,Wunderground v.1.15,2013-11-05 17:02:00,
2013-11-05 11:04:00,71.3,67.6,29.90,SE,130,6.0,6.0,88,0.00,,,0.00,Wunderground v.1.15,2013-11-05 17:04:00,
2013-11-05 11:05:00,71.5,67.4,29.90,SW,223,6.0,6.0,87,0.00,,,0.00,Wunderground v.1.15,2013-11-05 17:05:00,
2013-11-05 11:07:00,71.6,67.5,29.90,SSE,160,6.0,7.0,87,0.00,,,0.00,Wunderground v.1.15,2013-11-05 17:07:00,
2013-11-05 11:09:00,71.8,67.4,29.90,SE,133,6.0,7.0,86,0.00,,,0.00,Wunderground v.1.15,2013-11-05 17:09:00,
2013-11-05 11:13:00,72.5,67.4,29.90,SE,143,6.0,7.0,84,0.00,,,0.00,Wunderground v.1.15,2013-11-05 17:13:00,
2013-11-05 11:15:00,72.8,67.0,29.90,SSE,162,6.0,11.0,82,0.00,,,0.00,Wunderground v.1.15,2013-11-05 17:15:00,
2013-11-05 11:16:00,72.8,66.6,29.90,SE,143,6.0,11.0,81,0.00,,,0.00,Wunderground v.1.15,2013-11-05 17:16:00,
2013-11-05 11:19:00,73.0,66.5,29.89,South,171,6.0,11.0,80,0.00,,,0.00,Wunderground v.1.15,2013-11-05 17:19:00,
2013-11-05 11:22:00,73.0,66.1,29.89,SSE,162,7.0,7.0,79,0.00,,,0.00,Wunderground v.1.15,2013-11-05 17:22:00,
2013-11-05 11:25:00,73.2,66.3,29.89,ESE,123,6.0,10.0,79,0.00,,,0.00,Wunderground v.1.15,2013-11-05 17:25:00,
2013-11-05 11:26:00,73.2,66.3,29.89,SSE,151,6.0,17.0,79,0.00,,,0.00,Wunderground v.1.15,2013-11-05 17:26:00,
2013-11-05 11:27:00,73.2,66.3,29.89,SE,136,7.0,17.0,79,0.00,,,0.00,Wunderground v.1.15,2013-11-05 17:27:00,
2013-11-05 11:29:00,73.2,66.3,29.89,SE,124,7.0,17.0,79,0.00,,,0.00,Wunderground v.1.15,2013-11-05 17:29:00,
2013-11-05 11:32:00,73.2,65.9,29.88,SSW,195,7.0,7.0,78,0.00,,,0.00,Wunderground v.1.15,2013-11-05 17:32:00,
2013-11-05 11:33:00,73.3,66.4,29.88,SSE,152,7.0,8.0,79,0.00,,,0.00,Wunderground v.1.15,2013-11-05 17:33:00,
2013-11-05 11:34:00,73.3,66.4,29.88,SE,127,7.0,8.0,79,0.00,,,0.00,Wunderground v.1.15,2013-11-05 17:34:00,
2013-11-05 11:37:00,73.5,66.6,29.88,SSE,152,7.0,10.0,79,0.00,,,0.00,Wunderground v.1.15,2013-11-05 17:37:00,
2013-11-05 11:38:00,73.7,66.8,29.88,SSW,202,6.0,11.0,79,0.00,,,0.00,Wunderground v.1.15,2013-11-05 17:38:00,
2013-11-05 11:42:00,73.7,66.0,29.88,SE,131,7.0,7.0,77,0.00,,,0.00,Wunderground v.1.15,2013-11-05 17:42:00,
2013-11-05 11:45:00,73.9,66.6,29.88,SE,138,8.0,8.0,78,0.00,,,0.00,Wunderground v.1.15,2013-11-05 17:45:00,
2013-11-05 11:47:00,74.0,66.7,29.88,ESE,116,8.0,11.0,78,0.00,,,0.00,Wunderground v.1.15,2013-11-05 17:47:00,
2013-11-05 11:49:00,74.4,67.1,29.88,ESE,123,7.0,11.0,78,0.00,,,0.00,Wunderground v.1.15,2013-11-05 17:49:00,
2013-11-05 11:52:00,74.6,66.9,29.88,SSE,158,7.0,10.0,77,0.00,,,0.00,Wunderground v.1.15,2013-11-05 17:52:00,
2013-11-05 11:53:00,74.6,66.5,29.88,SSW,199,6.0,10.0,76,0.00,,,0.00,Wunderground v.1.15,2013-11-05 17:53:00,
2013-11-05 11:55:00,74.6,66.1,29.88,SSE,168,6.0,10.0,75,0.00,,,0.00,Wunderground v.1.15,2013-11-05 17:55:00,
2013-11-05 11:59:00,74.7,66.2,29.88,SE,126,6.0,10.0,75,0.00,,,0.00,Wunderground v.1.15,2013-11-05 17:59:00,
2013-11-05 12:02:00,74.7,65.9,29.87,SSW,192,7.0,7.0,74,0.00,,,0.00,Wunderground v.1.15,2013-11-05 18:02:00,
2013-11-05 12:04:00,74.9,65.7,29.87,SE,145,7.0,12.0,73,0.00,,,0.00,Wunderground v.1.15,2013-11-05 18:04:00,
2013-11-05 12:06:00,75.1,65.5,29.87,SE,124,7.0,12.0,72,0.00,,,0.00,Wunderground v.1.15,2013-11-05 18:06:00,
2013-11-05 12:08:00,75.3,65.6,29.87,SSE,148,8.0,14.0,72,0.00,,,0.00,Wunderground v.1.15,2013-11-05 18:08:00,
2013-11-05 12:09:00,75.1,65.5,29.87,SSE,158,8.0,14.0,72,0.00,,,0.00,Wunderground v.1.15,2013-11-05 18:09:00,
2013-11-05 12:12:00,75.3,65.6,29.87,SSE,162,7.0,7.0,72,0.00,,,0.00,Wunderground v.1.15,2013-11-05 18:12:00,
2013-11-05 12:13:00,75.1,65.5,29.87,SE,136,7.0,7.0,72,0.00,,,0.00,Wunderground v.1.15,2013-11-05 18:13:00,
2013-11-05 12:14:00,75.1,65.5,29.87,South,185,7.0,7.0,72,0.00,,,0.00,Wunderground v.1.15,2013-11-05 18:14:00,
2013-11-05 12:17:00,74.9,65.3,29.87,South,175,7.0,7.0,72,0.00,,,0.00,Wunderground v.1.15,2013-11-05 18:17:00,
2013-11-05 12:22:00,74.6,65.8,29.86,SSE,157,6.0,6.0,74,0.00,,,0.00,Wunderground v.1.15,2013-11-05 18:22:00,
2013-11-05 12:23:00,74.6,66.1,29.86,SE,141,6.0,6.0,75,0.00,,,0.00,Wunderground v.1.15,2013-11-05 18:23:00,
2013-11-05 12:24:00,74.6,66.1,29.86,ESE,114,6.0,6.0,75,0.00,,,0.00,Wunderground v.1.15,2013-11-05 18:24:00,
2013-11-05 12:25:00,74.6,66.1,29.86,SE,128,6.0,9.0,75,0.00,,,0.00,Wunderground v.1.15,2013-11-05 18:25:00,
2013-11-05 12:26:00,74.6,66.1,29.86,South,179,6.0,9.0,75,0.00,,,0.00,Wunderground v.1.15,2013-11-05 18:26:00,
2013-11-05 12:28:00,74.6,66.1,29.86,SE,140,6.0,9.0,75,0.00,,,0.00,Wunderground v.1.15,2013-11-05 18:28:00,
2013-11-05 12:33:00,74.6,66.1,29.85,SSE,157,6.0,6.0,75,0.00,,,0.00,Wunderground v.1.15,2013-11-05 18:33:00,
2013-11-05 12:37:00,74.7,65.9,29.85,SE,137,6.0,7.0,74,0.00,,,0.00,Wunderground v.1.15,2013-11-05 18:37:00,
2013-11-05 12:38:00,74.9,66.1,29.85,SE,134,5.0,7.0,74,0.00,,,0.00,Wunderground v.1.15,2013-11-05 18:38:00,
2013-11-05 12:39:00,74.9,66.1,29.85,South,175,5.0,7.0,74,0.00,,,0.00,Wunderground v.1.15,2013-11-05 18:39:00,
2013-11-05 12:42:00,74.9,66.1,29.85,South,171,6.0,6.0,74,0.00,,,0.00,Wunderground v.1.15,2013-11-05 18:42:00,
2013-11-05 12:43:00,74.9,65.7,29.85,SE,127,6.0,12.0,73,0.00,,,0.00,Wunderground v.1.15,2013-11-05 18:43:00,
2013-11-05 12:45:00,74.9,65.7,29.85,SSE,151,6.0,12.0,73,0.00,,,0.00,Wunderground v.1.15,2013-11-05 18:45:00,
2013-11-05 12:47:00,74.9,65.7,29.84,SE,137,6.0,12.0,73,0.00,,,0.00,Wunderground v.1.15,2013-11-05 18:47:00,
2013-11-05 12:48:00,74.9,65.7,29.84,ESE,112,7.0,12.0,73,0.00,,,0.00,Wunderground v.1.15,2013-11-05 18:48:00,
2013-11-05 12:52:00,74.9,65.7,29.84,SE,137,7.0,7.0,73,0.00,,,0.00,Wunderground v.1.15,2013-11-05 18:52:00,
2013-11-05 12:53:00,74.9,65.7,29.84,SE,138,7.0,7.0,73,0.00,,,0.00,Wunderground v.1.15,2013-11-05 18:53:00,
2013-11-05 12:55:00,74.7,65.5,29.84,SE,126,6.0,8.0,73,0.00,,,0.00,Wunderground v.1.15,2013-11-05 18:55:00,
2013-11-05 12:57:00,74.9,66.1,29.84,ESE,112,7.0,9.0,74,0.00,,,0.00,Wunderground v.1.15,2013-11-05 18:57:00,
2013-11-05 12:59:00,75.1,65.9,29.84,SSE,165,8.0,9.0,73,0.00,,,0.00,Wunderground v.1.15,2013-11-05 18:59:00,
2013-11-05 13:03:00,75.4,66.1,29.83,SE,138,7.0,10.0,73,0.00,,,0.00,Wunderground v.1.15,2013-11-05 19:03:00,
2013-11-05 13:04:00,75.4,65.7,29.83,SSE,162,7.0,10.0,72,0.00,,,0.00,Wunderground v.1.15,2013-11-05 19:04:00,
2013-11-05 13:06:00,75.6,65.9,29.83,SSE,165,7.0,10.0,72,0.00,,,0.00,Wunderground v.1.15,2013-11-05 19:06:00,
2013-11-05 13:09:00,75.6,65.9,29.83,ESE,116,7.0,10.0,72,0.00,,,0.00,Wunderground v.1.15,2013-11-05 19:09:00,
2013-11-05 13:12:00,75.6,65.9,29.83,SE,141,8.0,8.0,72,0.00,,,0.00,Wunderground v.1.15,2013-11-05 19:12:00,
2013-11-05 13:13:00,75.6,65.9,29.83,SE,136,8.0,8.0,72,0.00,,,0.00,Wunderground v.1.15,2013-11-05 19:13:00,
2013-11-05 13:14:00,75.6,65.9,29.83,SE,133,7.0,10.0,72,0.00,,,0.00,Wunderground v.1.15,2013-11-05 19:14:00,
2013-11-05 13:15:00,75.6,65.9,29.83,East,89,7.0,10.0,72,0.00,,,0.00,Wunderground v.1.15,2013-11-05 19:15:00,
2013-11-05 13:18:00,75.8,66.1,29.83,SSE,148,7.0,11.0,72,0.00,,,0.00,Wunderground v.1.15,2013-11-05 19:18:00,
2013-11-05 13:22:00,76.0,66.3,29.83,SSE,161,6.0,6.0,72,0.00,,,0.00,Wunderground v.1.15,2013-11-05 19:22:00,
2013-11-05 13:23:00,76.0,66.3,29.83,South,169,6.0,6.0,72,0.00,,,0.00,Wunderground v.1.15,2013-11-05 19:23:00,
2013-11-05 13:24:00,76.0,66.3,29.83,SSE,167,5.0,6.0,72,0.00,,,0.00,Wunderground v.1.15,2013-11-05 19:24:00,
2013-11-05 13:25:00,76.0,66.3,29.83,SE,134,5.0,6.0,72,0.00,,,0.00,Wunderground v.1.15,2013-11-05 19:25:00,
2013-11-05 13:26:00,76.0,66.3,29.83,SE,134,5.0,6.0,72,0.00,,,0.00,Wunderground v.1.15,2013-11-05 19:26:00,
2013-11-05 13:28:00,75.8,66.1,29.83,SE,144,4.0,9.0,72,0.00,,,0.00,Wunderground v.1.15,2013-11-05 19:28:00,
2013-11-05 13:29:00,75.8,66.1,29.83,SE,143,4.0,9.0,72,0.00,,,0.00,Wunderground v.1.15,2013-11-05 19:29:00,
2013-11-05 13:32:00,75.6,65.9,29.83,SW,227,4.0,6.0,72,0.00,,,0.00,Wunderground v.1.15,2013-11-05 19:32:00,
2013-11-05 13:33:00,75.6,65.9,29.82,SSE,147,5.0,9.0,72,0.00,,,0.00,Wunderground v.1.15,2013-11-05 19:33:00,
2013-11-05 13:34:00,75.6,65.9,29.82,SSE,147,5.0,9.0,72,0.00,,,0.00,Wunderground v.1.15,2013-11-05 19:34:00,
2013-11-05 13:36:00,75.4,65.7,29.82,SSE,164,5.0,9.0,72,0.00,,,0.00,Wunderground v.1.15,2013-11-05 19:36:00,
2013-11-05 13:37:00,75.4,65.7,29.82,SE,131,5.0,9.0,72,0.00,,,0.00,Wunderground v.1.15,2013-11-05 19:37:00,
2013-11-05 13:38:00,75.4,66.1,29.82,SE,140,5.0,9.0,73,0.00,,,0.00,Wunderground v.1.15,2013-11-05 19:38:00,
2013-11-05 13:42:00,75.4,66.1,29.82,SSE,154,4.0,5.0,73,0.00,,,0.00,Wunderground v.1.15,2013-11-05 19:42:00,
2013-11-05 13:43:00,75.4,66.1,29.82,ESE,117,4.0,5.0,73,0.00,,,0.00,Wunderground v.1.15,2013-11-05 19:43:00,
2013-11-05 13:46:00,75.4,66.1,29.82,ESE,123,3.0,10.0,73,0.00,,,0.00,Wunderground v.1.15,2013-11-05 19:46:00,
2013-11-05 13:47:00,75.4,66.1,29.82,SSE,147,4.0,10.0,73,0.00,,,0.00,Wunderground v.1.15,2013-11-05 19:47:00,
2013-11-05 13:52:00,75.4,66.1,29.81,SSE,154,5.0,5.0,73,0.00,,,0.00,Wunderground v.1.15,2013-11-05 19:52:00,
2013-11-05 13:53:00,75.4,66.1,29.81,SSE,147,5.0,5.0,73,0.00,,,0.00,Wunderground v.1.15,2013-11-05 19:53:00,
2013-11-05 13:55:00,75.4,66.1,29.81,SE,138,4.0,6.0,73,0.00,,,0.00,Wunderground v.1.15,2013-11-05 19:55:00,
2013-11-05 13:57:00,75.4,66.1,29.81,South,174,4.0,6.0,73,0.00,,,0.00,Wunderground v.1.15,2013-11-05 19:57:00,
2013-11-05 14:02:00,75.4,66.1,29.80,SSE,165,3.0,7.0,73,0.00,,,0.00,Wunderground v.1.15,2013-11-05 20:02:00,
2013-11-05 14:03:00,75.4,66.1,29.80,SE,126,3.0,8.0,73,0.00,,,0.00,Wunderground v.1.15,2013-11-05 20:03:00,
2013-11-05 14:04:00,75.4,66.1,29.80,SE,133,4.0,8.0,73,0.00,,,0.00,Wunderground v.1.15,2013-11-05 20:04:00,
2013-11-05 14:07:00,75.4,66.1,29.80,SSE,162,3.0,8.0,73,0.00,,,0.00,Wunderground v.1.15,2013-11-05 20:07:00,
2013-11-05 14:08:00,75.4,66.1,29.80,SE,131,3.0,8.0,73,0.00,,,0.00,Wunderground v.1.15,2013-11-05 20:08:00,
2013-11-05 14:09:00,75.4,66.1,29.80,South,169,3.0,8.0,73,0.00,,,0.00,Wunderground v.1.15,2013-11-05 20:09:00,
2013-11-05 14:13:00,75.6,66.3,29.80,South,184,3.0,5.0,73,0.00,,,0.00,Wunderground v.1.15,2013-11-05 20:13:00,
2013-11-05 14:14:00,75.8,66.5,29.80,South,184,3.0,5.0,73,0.00,,,0.00,Wunderground v.1.15,2013-11-05 20:14:00,
2013-11-05 14:16:00,75.8,66.5,29.80,SE,128,3.0,5.0,73,0.00,,,0.00,Wunderground v.1.15,2013-11-05 20:16:00,
2013-11-05 14:22:00,76.0,66.3,29.80,SSE,158,3.0,3.0,72,0.00,,,0.00,Wunderground v.1.15,2013-11-05 20:22:00,
2013-11-05 14:23:00,76.1,66.4,29.80,South,175,3.0,3.0,72,0.00,,,0.00,Wunderground v.1.15,2013-11-05 20:23:00,
2013-11-05 14:25:00,76.1,66.4,29.80,SSE,151,3.0,4.0,72,0.00,,,0.00,Wunderground v.1.15,2013-11-05 20:25:00,
2013-11-05 14:28:00,76.3,66.6,29.80,South,188,3.0,4.0,72,0.00,,,0.00,Wunderground v.1.15,2013-11-05 20:28:00,
2013-11-05 14:33:00,76.5,66.8,29.80,South,176,3.0,5.0,72,0.00,,,0.00,Wunderground v.1.15,2013-11-05 20:33:00,
2013-11-05 14:35:00,76.5,66.8,29.80,SE,130,3.0,5.0,72,0.00,,,0.00,Wunderground v.1.15,2013-11-05 20:35:00,
2013-11-05 14:36:00,76.5,66.8,29.80,SSE,151,3.0,5.0,72,0.00,,,0.00,Wunderground v.1.15,2013-11-05 20:36:00,
2013-11-05 14:37:00,76.5,66.4,29.80,SE,126,4.0,5.0,71,0.00,,,0.00,Wunderground v.1.15,2013-11-05 20:37:00,
2013-11-05 14:39:00,76.7,66.6,29.80,SSE,165,4.0,5.0,71,0.00,,,0.00,Wunderground v.1.15,2013-11-05 20:39:00,
2013-11-05 14:42:00,76.7,66.6,29.80,South,189,4.0,6.0,71,0.00,,,0.00,Wunderground v.1.15,2013-11-05 20:42:00,
2013-11-05 14:44:00,76.8,66.3,29.80,South,175,4.0,6.0,70,0.00,,,0.00,Wunderground v.1.15,2013-11-05 20:44:00,
2013-11-05 14:45:00,76.8,66.3,29.80,SE,140,4.0,6.0,70,0.00,,,0.00,Wunderground v.1.15,2013-11-05 20:45:00,
2013-11-05 14:46:00,76.8,66.3,29.80,SSE,155,4.0,6.0,70,0.00,,,0.00,Wunderground v.1.15,2013-11-05 20:46:00,
2013-11-05 14:47:00,76.8,66.3,29.79,South,178,4.0,6.0,70,0.00,,,0.00,Wunderground v.1.15,2013-11-05 20:47:00,
2013-11-05 14:49:00,76.8,66.3,29.79,South,182,4.0,6.0,70,0.00,,,0.00,Wunderground v.1.15,2013-11-05 20:49:00,
2013-11-05 14:52:00,77.0,66.5,29.79,SE,141,3.0,3.0,70,0.00,,,0.00,Wunderground v.1.15,2013-11-05 20:52:00,
2013-11-05 14:53:00,77.0,66.5,29.79,SE,141,3.0,3.0,70,0.00,,,0.00,Wunderground v.1.15,2013-11-05 20:53:00,
2013-11-05 14:54:00,77.0,66.5,29.79,SSE,157,2.0,3.0,70,0.00,,,0.00,Wunderground v.1.15,2013-11-05 20:54:00,
2013-11-05 14:55:00,77.0,66.9,29.79,SE,140,2.0,6.0,71,0.00,,,0.00,Wunderground v.1.15,2013-11-05 20:55:00,
2013-11-05 14:56:00,77.0,66.5,29.79,SSE,168,2.0,6.0,70,0.00,,,0.00,Wunderground v.1.15,2013-11-05 20:56:00,
2013-11-05 14:58:00,77.0,66.5,29.79,SSE,162,2.0,6.0,70,0.00,,,0.00,Wunderground v.1.15,2013-11-05 20:58:00,
2013-11-05 14:59:00,77.0,66.5,29.79,SE,141,2.0,10.0,70,0.00,,,0.00,Wunderground v.1.15,2013-11-05 20:59:00,
2013-11-05 15:04:00,77.0,66.0,29.79,SSE,158,3.0,3.0,69,0.00,,,0.00,Wunderground v.1.15,2013-11-05 21:04:00,
2013-11-05 15:07:00,77.2,66.2,29.79,SE,133,4.0,11.0,69,0.00,,,0.00,Wunderground v.1.15,2013-11-05 21:07:00,
2013-11-05 15:09:00,77.2,66.2,29.79,SSE,168,4.0,11.0,69,0.00,,,0.00,Wunderground v.1.15,2013-11-05 21:09:00,
2013-11-05 15:12:00,77.2,65.8,29.79,South,185,4.0,7.0,68,0.00,,,0.00,Wunderground v.1.15,2013-11-05 21:12:00,
2013-11-05 15:16:00,77.4,65.6,29.79,SSE,162,5.0,8.0,67,0.00,,,0.00,Wunderground v.1.15,2013-11-05 21:16:00,
2013-11-05 15:17:00,77.4,65.6,29.78,SSE,151,5.0,8.0,67,0.00,,,0.00,Wunderground v.1.15,2013-11-05 21:17:00,
2013-11-05 15:22:00,77.6,65.8,29.78,South,185,5.0,5.0,67,0.00,,,0.00,Wunderground v.1.15,2013-11-05 21:22:00,
2013-11-05 15:23:00,77.6,65.8,29.78,South,175,5.0,5.0,67,0.00,,,0.00,Wunderground v.1.15,2013-11-05 21:23:00,
2013-11-05 15:25:00,77.6,65.8,29.78,SSE,168,5.0,9.0,67,0.00,,,0.00,Wunderground v.1.15,2013-11-05 21:25:00,
2013-11-05 15:27:00,77.6,65.8,29.78,South,171,5.0,9.0,67,0.00,,,0.00,Wunderground v.1.15,2013-11-05 21:27:00,
2013-11-05 15:28:00,77.6,65.8,29.78,South,175,5.0,9.0,67,0.00,,,0.00,Wunderground v.1.15,2013-11-05 21:28:00,
2013-11-05 15:29:00,77.7,65.9,29.78,SSE,160,5.0,9.0,67,0.00,,,0.00,Wunderground v.1.15,2013-11-05 21:29:00,
2013-11-05 15:32:00,77.7,65.9,29.78,SSE,148,5.0,5.0,67,0.00,,,0.00,Wunderground v.1.15,2013-11-05 21:32:00,
2013-11-05 15:36:00,77.7,65.9,29.78,SSW,210,3.0,5.0,67,0.00,,,0.00,Wunderground v.1.15,2013-11-05 21:36:00,
2013-11-05 15:37:00,77.7,65.9,29.78,South,189,3.0,6.0,67,0.00,,,0.00,Wunderground v.1.15,2013-11-05 21:37:00,
2013-11-05 15:38:00,77.7,65.9,29.78,South,186,3.0,6.0,67,0.00,,,0.00,Wunderground v.1.15,2013-11-05 21:38:00,
2013-11-05 15:42:00,77.7,66.3,29.78,SSE,154,2.0,2.0,68,0.00,,,0.00,Wunderground v.1.15,2013-11-05 21:42:00,
2013-11-05 15:43:00,77.7,65.9,29.78,South,174,3.0,12.0,67,0.00,,,0.00,Wunderground v.1.15,2013-11-05 21:43:00,
2013-11-05 15:47:00,77.7,65.9,29.78,South,179,3.0,12.0,67,0.00,,,0.00,Wunderground v.1.15,2013-11-05 21:47:00,
2013-11-05 15:48:00,77.7,65.9,29.78,South,179,4.0,12.0,67,0.00,,,0.00,Wunderground v.1.15,2013-11-05 21:48:00,
2013-11-05 15:52:00,77.7,65.9,29.78,South,185,4.0,4.0,67,0.00,,,0.00,Wunderground v.1.15,2013-11-05 21:52:00,
2013-11-05 15:54:00,77.7,65.9,29.78,South,186,3.0,4.0,67,0.00,,,0.00,Wunderground v.1.15,2013-11-05 21:54:00,
2013-11-05 15:55:00,77.7,65.9,29.78,South,175,3.0,10.0,67,0.00,,,0.00,Wunderground v.1.15,2013-11-05 21:55:00,
2013-11-05 15:57:00,77.7,65.9,29.78,South,186,3.0,10.0,67,0.00,,,0.00,Wunderground v.1.15,2013-11-05 21:57:00,
2013-11-05 15:59:00,77.7,65.4,29.78,ESE,116,3.0,10.0,66,0.00,,,0.00,Wunderground v.1.15,2013-11-05 21:59:00,
2013-11-05 16:02:00,77.7,65.4,29.78,South,176,4.0,4.0,66,0.00,,,0.00,Wunderground v.1.15,2013-11-05 22:02:00,
2013-11-05 16:03:00,77.7,65.4,29.78,South,175,4.0,6.0,66,0.00,,,0.00,Wunderground v.1.15,2013-11-05 22:03:00,
2013-11-05 16:05:00,77.7,65.4,29.78,South,178,4.0,6.0,66,0.00,,,0.00,Wunderground v.1.15,2013-11-05 22:05:00,
2013-11-05 16:07:00,77.7,65.4,29.78,SSW,193,3.0,6.0,66,0.00,,,0.00,Wunderground v.1.15,2013-11-05 22:07:00,
2013-11-05 16:08:00,77.7,65.4,29.78,SSW,203,3.0,6.0,66,0.00,,,0.00,Wunderground v.1.15,2013-11-05 22:08:00,
2013-11-05 16:12:00,77.7,65.9,29.78,SSW,203,2.0,2.0,67,0.00,,,0.00,Wunderground v.1.15,2013-11-05 22:12:00,
2013-11-05 16:14:00,77.9,66.1,29.78,SSW,192,1.0,2.0,67,0.00,,,0.00,Wunderground v.1.15,2013-11-05 22:14:00,
2013-11-05 16:15:00,77.7,65.9,29.78,SSE,168,1.0,2.0,67,0.00,,,0.00,Wunderground v.1.15,2013-11-05 22:15:00,
2013-11-05 16:16:00,77.7,65.9,29.78,South,182,1.0,3.0,67,0.00,,,0.00,Wunderground v.1.15,2013-11-05 22:16:00,
2013-11-05 16:17:00,77.7,65.9,29.79,SE,131,1.0,3.0,67,0.00,,,0.00,Wunderground v.1.15,2013-11-05 22:17:00,
2013-11-05 16:22:00,77.7,65.9,29.79,South,175,2.0,2.0,67,0.00,,,0.00,Wunderground v.1.15,2013-11-05 22:22:00,
2013-11-05 16:23:00,77.7,65.9,29.79,South,179,2.0,2.0,67,0.00,,,0.00,Wunderground v.1.15,2013-11-05 22:23:00,
2013-11-05 16:24:00,77.7,65.9,29.79,South,178,2.0,2.0,67,0.00,,,0.00,Wunderground v.1.15,2013-11-05 22:24:00,
2013-11-05 16:28:00,77.7,65.9,29.79,South,179,1.0,2.0,67,0.00,,,0.00,Wunderground v.1.15,2013-11-05 22:28:00,
2013-11-05 16:32:00,77.6,65.8,29.79,SE,130,1.0,6.0,67,0.00,,,0.00,Wunderground v.1.15,2013-11-05 22:32:00,
2013-11-05 16:34:00,77.6,65.8,29.79,SE,131,2.0,9.0,67,0.00,,,0.00,Wunderground v.1.15,2013-11-05 22:34:00,
2013-11-05 16:36:00,77.6,65.8,29.79,SE,138,3.0,9.0,67,0.00,,,0.00,Wunderground v.1.15,2013-11-05 22:36:00,
2013-11-05 16:37:00,77.6,66.2,29.79,SE,138,3.0,9.0,68,0.00,,,0.00,Wunderground v.1.15,2013-11-05 22:37:00,
2013-11-05 16:42:00,77.4,66.4,29.79,SE,140,5.0,5.0,69,0.00,,,0.00,Wunderground v.1.15,2013-11-05 22:42:00,
2013-11-05 16:43:00,77.4,66.4,29.79,SE,130,4.0,5.0,69,0.00,,,0.00,Wunderground v.1.15,2013-11-05 22:43:00,
2013-11-05 16:46:00,77.4,66.4,29.79,SE,141,4.0,8.0,69,0.00,,,0.00,Wunderground v.1.15,2013-11-05 22:46:00,
2013-11-05 16:48:00,77.4,66.4,29.79,SE,127,4.0,8.0,69,0.00,,,0.00,Wunderground v.1.15,2013-11-05 22:48:00,
2013-11-05 16:52:00,77.6,66.6,29.79,SE,130,5.0,11.0,69,0.00,,,0.00,Wunderground v.1.15,2013-11-05 22:52:00,
2013-11-05 16:55:00,77.6,66.6,29.79,SE,136,6.0,11.0,69,0.00,,,0.00,Wunderground v.1.15,2013-11-05 22:55:00,
2013-11-05 16:57:00,77.7,67.1,29.79,ESE,107,6.0,11.0,70,0.00,,,0.00,Wunderground v.1.15,2013-11-05 22:57:00,
2013-11-05 16:58:00,77.7,67.1,29.79,ESE,120,6.0,11.0,70,0.00,,,0.00,Wunderground v.1.15,2013-11-05 22:58:00,
2013-11-05 17:02:00,77.6,66.6,29.79,SE,138,6.0,6.0,69,0.00,,,0.00,Wunderground v.1.15,2013-11-05 23:02:00,
2013-11-05 17:04:00,77.4,66.8,29.79,SE,128,6.0,9.0,70,0.00,,,0.00,Wunderground v.1.15,2013-11-05 23:04:00,
2013-11-05 17:07:00,77.2,66.7,29.79,SE,137,5.0,9.0,70,0.00,,,0.00,Wunderground v.1.15,2013-11-05 23:07:00,
2013-11-05 17:11:00,77.0,66.9,29.79,SE,133,4.0,4.0,71,0.00,,,0.00,Wunderground v.1.15,2013-11-05 23:11:00,
2013-11-05 17:13:00,77.0,66.9,29.79,ESE,121,4.0,4.0,71,0.00,,,0.00,Wunderground v.1.15,2013-11-05 23:13:00,
2013-11-05 17:15:00,76.8,67.1,29.79,ESE,123,3.0,4.0,72,0.00,,,0.00,Wunderground v.1.15,2013-11-05 23:15:00,
2013-11-05 17:16:00,76.8,67.1,29.79,ESE,123,3.0,4.0,72,0.00,,,0.00,Wunderground v.1.15,2013-11-05 23:16:00,
2013-11-05 17:18:00,76.7,67.0,29.80,SSE,148,3.0,5.0,72,0.00,,,0.00,Wunderground v.1.15,2013-11-05 23:18:00,
2013-11-05 17:21:00,76.5,66.8,29.80,SSE,147,3.0,6.0,72,0.00,,,0.00,Wunderground v.1.15,2013-11-05 23:21:00,
2013-11-05 17:22:00,76.5,66.8,29.80,SE,124,4.0,6.0,72,0.00,,,0.00,Wunderground v.1.15,2013-11-05 23:22:00,
2013-11-05 17:23:00,76.5,66.8,29.80,SE,137,4.0,6.0,72,0.00,,,0.00,Wunderground v.1.15,2013-11-05 23:23:00,
2013-11-05 17:24:00,76.5,66.8,29.80,SE,133,4.0,6.0,72,0.00,,,0.00,Wunderground v.1.15,2013-11-05 23:24:00,
2013-11-05 17:27:00,76.3,66.6,29.80,SE,141,5.0,6.0,72,0.00,,,0.00,Wunderground v.1.15,2013-11-05 23:27:00,
2013-11-05 17:28:00,76.3,66.6,29.80,SE,140,4.0,6.0,72,0.00,,,0.00,Wunderground v.1.15,2013-11-05 23:28:00,
2013-11-05 17:32:00,76.1,66.8,29.80,SE,126,4.0,4.0,73,0.00,,,0.00,Wunderground v.1.15,2013-11-05 23:32:00,
2013-11-05 17:33:00,76.1,66.8,29.80,South,181,3.0,4.0,73,0.00,,,0.00,Wunderground v.1.15,2013-11-05 23:33:00,
2013-11-05 17:34:00,76.1,66.8,29.80,ESE,120,3.0,7.0,73,0.00,,,0.00,Wunderground v.1.15,2013-11-05 23:34:00,
2013-11-05 17:35:00,76.1,66.8,29.80,ESE,121,3.0,7.0,73,0.00,,,0.00,Wunderground v.1.15,2013-11-05 23:35:00,
2013-11-05 17:42:00,76.0,67.1,29.80,SE,134,3.0,3.0,74,0.00,,,0.00,Wunderground v.1.15,2013-11-05 23:42:00,
2013-11-05 17:44:00,76.0,67.1,29.80,SE,136,2.0,8.0,74,0.00,,,0.00,Wunderground v.1.15,2013-11-05 23:44:00,
2013-11-05 17:47:00,76.0,67.1,29.80,SSE,158,3.0,8.0,74,0.00,,,0.00,Wunderground v.1.15,2013-11-05 23:47:00,
2013-11-05 17:51:00,76.0,67.1,29.80,SE,137,4.0,4.0,74,0.00,,,0.00,Wunderground v.1.15,2013-11-05 23:51:00,
2013-11-05 17:53:00,76.0,67.5,29.80,SE,127,4.0,4.0,75,0.00,,,0.00,Wunderground v.1.15,2013-11-05 23:53:00,
2013-11-05 17:56:00,75.8,67.3,29.80,SSE,147,4.0,6.0,75,0.00,,,0.00,Wunderground v.1.15,2013-11-05 23:56:00,
2013-11-05 17:58:00,75.8,67.3,29.80,ESE,117,4.0,6.0,75,0.00,,,0.00,Wunderground v.1.15,2013-11-05 23:58:00,
2013-11-05 18:01:00,75.8,67.3,29.80,SE,137,4.0,4.0,75,0.00,,,0.00,Wunderground v.1.15,2013-11-06 00:01:00,
2013-11-05 18:02:00,75.8,67.7,29.80,SE,126,4.0,4.0,76,0.00,,,0.00,Wunderground v.1.15,2013-11-06 00:02:00,
2013-11-05 18:03:00,75.8,67.7,29.80,SSE,155,4.0,4.0,76,0.00,,,0.00,Wunderground v.1.15,2013-11-06 00:03:00,
2013-11-05 18:04:00,75.8,67.7,29.80,SE,127,4.0,7.0,76,0.00,,,0.00,Wunderground v.1.15,2013-11-06 00:04:00,
2013-11-05 18:06:00,75.6,67.5,29.80,SE,143,5.0,7.0,76,0.00,,,0.00,Wunderground v.1.15,2013-11-06 00:06:00,
2013-11-05 18:08:00,75.6,67.5,29.80,SE,145,4.0,7.0,76,0.00,,,0.00,Wunderground v.1.15,2013-11-06 00:08:00,
2013-11-05 18:12:00,75.6,67.9,29.80,South,169,5.0,5.0,77,0.00,,,0.00,Wunderground v.1.15,2013-11-06 00:12:00,
2013-11-05 18:13:00,75.6,67.9,29.80,South,172,4.0,5.0,77,0.00,,,0.00,Wunderground v.1.15,2013-11-06 00:13:00,
2013-11-05 18:17:00,75.4,67.7,29.81,SSE,162,4.0,6.0,77,0.00,,,0.00,Wunderground v.1.15,2013-11-06 00:17:00,
2013-11-05 18:18:00,75.4,67.7,29.81,SE,143,5.0,6.0,77,0.00,,,0.00,Wunderground v.1.15,2013-11-06 00:18:00,
2013-11-05 18:21:00,75.4,67.7,29.81,SE,127,4.0,11.0,77,0.00,,,0.00,Wunderground v.1.15,2013-11-06 00:21:00,
2013-11-05 18:23:00,75.3,68.0,29.81,SE,138,5.0,11.0,78,0.00,,,0.00,Wunderground v.1.15,2013-11-06 00:23:00,
2013-11-05 18:24:00,75.3,68.0,29.81,SSE,148,5.0,11.0,78,0.00,,,0.00,Wunderground v.1.15,2013-11-06 00:24:00,
2013-11-05 18:25:00,75.3,68.0,29.81,SSE,150,5.0,11.0,78,0.00,,,0.00,Wunderground v.1.15,2013-11-06 00:25:00,
2013-11-05 18:27:00,75.3,68.3,29.81,SE,144,4.0,11.0,79,0.00,,,0.00,Wunderground v.1.15,2013-11-06 00:27:00,
2013-11-05 18:28:00,75.3,68.3,29.81,SE,144,4.0,11.0,79,0.00,,,0.00,Wunderground v.1.15,2013-11-06 00:28:00,
2013-11-05 18:33:00,75.1,68.1,29.82,SE,131,3.0,3.0,79,0.00,,,0.00,Wunderground v.1.15,2013-11-06 00:33:00,
2013-11-05 18:35:00,75.1,68.1,29.82,SE,131,2.0,3.0,79,0.00,,,0.00,Wunderground v.1.15,2013-11-06 00:35:00,
2013-11-05 18:36:00,74.9,67.9,29.82,SE,133,2.0,3.0,79,0.00,,,0.00,Wunderground v.1.15,2013-11-06 00:36:00,
2013-11-05 18:37:00,74.9,67.9,29.82,SE,127,3.0,3.0,79,0.00,,,0.00,Wunderground v.1.15,2013-11-06 00:37:00,
2013-11-05 18:38:00,74.9,67.9,29.82,SE,145,3.0,3.0,79,0.00,,,0.00,Wunderground v.1.15,2013-11-06 00:38:00,
2013-11-05 18:43:00,74.9,68.3,29.82,SE,143,3.0,3.0,80,0.00,,,0.00,Wunderground v.1.15,2013-11-06 00:43:00,
2013-11-05 18:44:00,74.9,68.3,29.82,SE,138,3.0,5.0,80,0.00,,,0.00,Wunderground v.1.15,2013-11-06 00:44:00,
2013-11-05 18:46:00,74.7,68.1,29.82,SE,133,3.0,6.0,80,0.00,,,0.00,Wunderground v.1.15,2013-11-06 00:46:00,
2013-11-05 18:49:00,74.7,68.1,29.82,ESE,112,3.0,6.0,80,0.00,,,0.00,Wunderground v.1.15,2013-11-06 00:49:00,
2013-11-05 18:52:00,74.7,68.1,29.82,ESE,120,2.0,2.0,80,0.00,,,0.00,Wunderground v.1.15,2013-11-06 00:52:00,
2013-11-05 18:54:00,74.7,68.1,29.82,SE,128,2.0,6.0,80,0.00,,,0.00,Wunderground v.1.15,2013-11-06 00:54:00,
2013-11-05 18:56:00,74.7,68.5,29.82,SE,128,2.0,6.0,81,0.00,,,0.00,Wunderground v.1.15,2013-11-06 00:56:00,
2013-11-05 18:58:00,74.6,68.4,29.82,ESE,123,2.0,6.0,81,0.00,,,0.00,Wunderground v.1.15,2013-11-06 00:58:00,
2013-11-05 19:02:00,74.6,68.4,29.83,SE,127,3.0,3.0,81,0.00,,,0.00,Wunderground v.1.15,2013-11-06 01:02:00,
2013-11-05 19:03:00,74.6,68.4,29.83,SE,133,3.0,4.0,81,0.00,,,0.00,Wunderground v.1.15,2013-11-06 01:03:00,
2013-11-05 19:05:00,74.6,68.4,29.83,SE,143,3.0,6.0,81,0.00,,,0.00,Wunderground v.1.15,2013-11-06 01:05:00,
2013-11-05 19:07:00,74.6,68.4,29.83,ESE,106,3.0,6.0,81,0.00,,,0.00,Wunderground v.1.15,2013-11-06 01:07:00,
2013-11-05 19:08:00,74.4,68.2,29.83,ESE,123,3.0,6.0,81,0.00,,,0.00,Wunderground v.1.15,2013-11-06 01:08:00,
2013-11-05 19:09:00,74.4,68.2,29.83,SE,136,3.0,6.0,81,0.00,,,0.00,Wunderground v.1.15,2013-11-06 01:09:00,
2013-11-05 19:15:00,74.4,68.2,29.83,ESE,123,3.0,5.0,81,0.00,,,0.00,Wunderground v.1.15,2013-11-06 01:15:00,
2013-11-05 19:16:00,74.4,68.2,29.83,SE,131,3.0,5.0,81,0.00,,,0.00,Wunderground v.1.15,2013-11-06 01:16:00,
2013-11-05 19:17:00,74.4,68.2,29.83,East,85,3.0,5.0,81,0.00,,,0.00,Wunderground v.1.15,2013-11-06 01:17:00,
2013-11-05 19:19:00,74.4,68.2,29.83,SE,133,3.0,6.0,81,0.00,,,0.00,Wunderground v.1.15,2013-11-06 01:19:00,
2013-11-05 19:22:00,74.2,68.0,29.83,SE,130,4.0,4.0,81,0.00,,,0.00,Wunderground v.1.15,2013-11-06 01:22:00,
2013-11-05 19:23:00,74.2,68.0,29.83,SE,128,3.0,4.0,81,0.00,,,0.00,Wunderground v.1.15,2013-11-06 01:23:00,
2013-11-05 19:24:00,74.2,68.0,29.83,SE,128,3.0,4.0,81,0.00,,,0.00,Wunderground v.1.15,2013-11-06 01:24:00,
2013-11-05 19:26:00,74.2,68.0,29.83,SE,134,4.0,6.0,81,0.00,,,0.00,Wunderground v.1.15,2013-11-06 01:26:00,
2013-11-05 19:27:00,74.2,68.0,29.83,ESE,102,4.0,6.0,81,0.00,,,0.00,Wunderground v.1.15,2013-11-06 01:27:00,
2013-11-05 19:28:00,74.2,68.0,29.83,SE,134,4.0,6.0,81,0.00,,,0.00,Wunderground v.1.15,2013-11-06 01:28:00,
2013-11-05 19:32:00,74.2,68.0,29.84,SE,128,4.0,7.0,81,0.00,,,0.00,Wunderground v.1.15,2013-11-06 01:32:00,
2013-11-05 19:33:00,74.2,68.0,29.84,ESE,110,4.0,7.0,81,0.00,,,0.00,Wunderground v.1.15,2013-11-06 01:33:00,
2013-11-05 19:34:00,74.2,68.0,29.84,SE,138,5.0,7.0,81,0.00,,,0.00,Wunderground v.1.15,2013-11-06 01:34:00,
2013-11-05 19:35:00,74.2,68.0,29.84,SE,130,5.0,7.0,81,0.00,,,0.00,Wunderground v.1.15,2013-11-06 01:35:00,
2013-11-05 19:39:00,74.2,68.0,29.84,SE,143,5.0,7.0,81,0.00,,,0.00,Wunderground v.1.15,2013-11-06 01:39:00,
2013-11-05 19:43:00,74.2,68.0,29.84,SE,145,5.0,5.0,81,0.00,,,0.00,Wunderground v.1.15,2013-11-06 01:43:00,
2013-11-05 19:44:00,74.0,67.8,29.84,SE,134,4.0,5.0,81,0.00,,,0.00,Wunderground v.1.15,2013-11-06 01:44:00,
2013-11-05 19:46:00,74.0,67.8,29.84,SE,134,4.0,5.0,81,0.00,,,0.00,Wunderground v.1.15,2013-11-06 01:46:00,
2013-11-05 19:52:00,74.0,67.8,29.85,ESE,102,3.0,5.0,81,0.00,,,0.00,Wunderground v.1.15,2013-11-06 01:52:00,
2013-11-05 19:53:00,74.0,67.8,29.85,ESE,102,3.0,6.0,81,0.00,,,0.00,Wunderground v.1.15,2013-11-06 01:53:00,
2013-11-05 19:55:00,74.0,67.8,29.85,ESE,110,2.0,6.0,81,0.00,,,0.00,Wunderground v.1.15,2013-11-06 01:55:00,
2013-11-05 19:58:00,73.9,67.7,29.85,ESE,112,2.0,6.0,81,0.00,,,0.00,Wunderground v.1.15,2013-11-06 01:58:00,
2013-11-05 19:59:00,73.9,67.7,29.85,ESE,112,2.0,6.0,81,0.00,,,0.00,Wunderground v.1.15,2013-11-06 01:59:00,
2013-11-05 20:02:00,73.9,67.7,29.86,SSE,147,2.0,2.0,81,0.00,,,0.00,Wunderground v.1.15,2013-11-06 02:02:00,
2013-11-05 20:03:00,73.9,67.7,29.86,SE,137,2.0,3.0,81,0.00,,,0.00,Wunderground v.1.15,2013-11-06 02:03:00,
2013-11-05 20:04:00,73.9,67.7,29.86,SE,140,2.0,3.0,81,0.00,,,0.00,Wunderground v.1.15,2013-11-06 02:04:00,
2013-11-05 20:07:00,73.9,67.7,29.86,South,171,2.0,3.0,81,0.00,,,0.00,Wunderground v.1.15,2013-11-06 02:07:00,
2013-11-05 20:08:00,73.9,67.7,29.86,South,171,2.0,3.0,81,0.00,,,0.00,Wunderground v.1.15,2013-11-06 02:08:00,
2013-11-05 20:12:00,73.7,67.5,29.86,SSE,167,1.0,1.0,81,0.00,,,0.00,Wunderground v.1.15,2013-11-06 02:12:00,
2013-11-05 20:13:00,73.7,67.5,29.86,SSE,150,1.0,3.0,81,0.00,,,0.00,Wunderground v.1.15,2013-11-06 02:13:00,
2013-11-05 20:14:00,73.7,67.5,29.86,SSE,152,1.0,6.0,81,0.00,,,0.00,Wunderground v.1.15,2013-11-06 02:14:00,
2013-11-05 20:15:00,73.7,67.5,29.86,SSE,162,1.0,6.0,81,0.00,,,0.00,Wunderground v.1.15,2013-11-06 02:15:00,
2013-11-05 20:19:00,73.7,67.5,29.86,SSE,158,2.0,7.0,81,0.00,,,0.00,Wunderground v.1.15,2013-11-06 02:19:00,
2013-11-05 20:22:00,73.7,67.5,29.86,SE,144,2.0,2.0,81,0.00,,,0.00,Wunderground v.1.15,2013-11-06 02:22:00,
2013-11-05 20:23:00,73.7,67.5,29.86,SSE,155,3.0,3.0,81,0.00,,,0.00,Wunderground v.1.15,2013-11-06 02:23:00,
2013-11-05 20:24:00,73.7,67.5,29.86,South,172,3.0,3.0,81,0.00,,,0.00,Wunderground v.1.15,2013-11-06 02:24:00,
2013-11-05 20:25:00,73.7,67.5,29.86,South,172,2.0,3.0,81,0.00,,,0.00,Wunderground v.1.15,2013-11-06 02:25:00,
2013-11-05 20:28:00,73.5,67.3,29.86,SE,134,2.0,7.0,81,0.00,,,0.00,Wunderground v.1.15,2013-11-06 02:28:00,
2013-11-05 20:29:00,73.5,67.3,29.86,SE,134,2.0,7.0,81,0.00,,,0.00,Wunderground v.1.15,2013-11-06 02:29:00,
2013-11-05 20:32:00,73.5,67.3,29.86,South,186,2.0,3.0,81,0.00,,,0.00,Wunderground v.1.15,2013-11-06 02:32:00,
2013-11-05 20:33:00,73.5,67.3,29.86,SSE,148,2.0,6.0,81,0.00,,,0.00,Wunderground v.1.15,2013-11-06 02:33:00,
2013-11-05 20:34:00,73.5,67.3,29.86,South,172,2.0,6.0,81,0.00,,,0.00,Wunderground v.1.15,2013-11-06 02:34:00,
2013-11-05 20:38:00,73.5,67.3,29.86,SE,141,2.0,6.0,81,0.00,,,0.00,Wunderground v.1.15,2013-11-06 02:38:00,
2013-11-05 20:39:00,73.5,67.3,29.86,SE,143,2.0,6.0,81,0.00,,,0.00,Wunderground v.1.15,2013-11-06 02:39:00,
2013-11-05 20:43:00,73.3,67.1,29.86,SSE,155,2.0,2.0,81,0.00,,,0.00,Wunderground v.1.15,2013-11-06 02:43:00,
2013-11-05 20:44:00,73.3,67.1,29.86,SSE,155,1.0,2.0,81,0.00,,,0.00,Wunderground v.1.15,2013-11-06 02:44:00,
2013-11-05 20:47:00,73.3,67.1,29.87,SSE,155,1.0,2.0,81,0.00,,,0.00,Wunderground v.1.15,2013-11-06 02:47:00,
2013-11-05 20:48:00,73.3,67.1,29.87,South,172,1.0,2.0,81,0.00,,,0.00,Wunderground v.1.15,2013-11-06 02:48:00,
2013-11-05 20:49:00,73.3,67.1,29.87,South,172,1.0,2.0,81,0.00,,,0.00,Wunderground v.1.15,2013-11-06 02:49:00,
2013-11-05 20:52:00,73.3,67.1,29.87,South,172,1.0,1.0,81,0.00,,,0.00,Wunderground v.1.15,2013-11-06 02:52:00,
2013-11-05 20:54:00,73.3,67.1,29.87,South,172,0.0,1.0,81,0.00,,,0.00,Wunderground v.1.15,2013-11-06 02:54:00,
2013-11-05 20:55:00,73.2,67.0,29.87,South,172,1.0,1.0,81,0.00,,,0.00,Wunderground v.1.15,2013-11-06 02:55:00,
2013-11-05 20:58:00,73.2,67.0,29.87,SE,136,0.0,2.0,81,0.00,,,0.00,Wunderground v.1.15,2013-11-06 02:58:00,
2013-11-05 20:59:00,73.2,67.0,29.87,SE,141,0.0,2.0,81,0.00,,,0.00,Wunderground v.1.15,2013-11-06 02:59:00,
2013-11-05 21:04:00,73.2,67.0,29.87,SE,131,1.0,3.0,81,0.00,,,0.00,Wunderground v.1.15,2013-11-06 03:04:00,
2013-11-05 21:05:00,73.2,67.0,29.87,SE,131,2.0,3.0,81,0.00,,,0.00,Wunderground v.1.15,2013-11-06 03:05:00,
2013-11-05 21:06:00,73.2,67.0,29.87,SE,131,2.0,3.0,81,0.00,,,0.00,Wunderground v.1.15,2013-11-06 03:06:00,
2013-11-05 21:08:00,73.2,67.4,29.87,SE,133,2.0,3.0,82,0.00,,,0.00,Wunderground v.1.15,2013-11-06 03:08:00,
2013-11-05 21:09:00,73.2,67.4,29.87,SSE,155,2.0,3.0,82,0.00,,,0.00,Wunderground v.1.15,2013-11-06 03:09:00,
2013-11-05 21:12:00,73.0,67.2,29.87,SE,133,2.0,2.0,82,0.00,,,0.00,Wunderground v.1.15,2013-11-06 03:12:00,
2013-11-05 21:15:00,73.0,67.2,29.87,SE,134,2.0,2.0,82,0.00,,,0.00,Wunderground v.1.15,2013-11-06 03:15:00,
2013-11-05 21:16:00,73.0,67.2,29.87,SE,126,2.0,2.0,82,0.00,,,0.00,Wunderground v.1.15,2013-11-06 03:16:00,
2013-11-05 21:18:00,73.0,67.2,29.87,SE,136,2.0,2.0,82,0.00,,,0.00,Wunderground v.1.15,2013-11-06 03:18:00,
2013-11-05 21:19:00,73.0,67.2,29.87,SE,130,3.0,7.0,82,0.00,,,0.00,Wunderground v.1.15,2013-11-06 03:19:00,
2013-11-05 21:23:00,73.0,67.2,29.87,SE,137,3.0,3.0,82,0.00,,,0.00,Wunderground v.1.15,2013-11-06 03:23:00,
2013-11-05 21:29:00,73.0,67.2,29.87,SE,131,3.0,3.0,82,0.00,,,0.00,Wunderground v.1.15,2013-11-06 03:29:00,
2013-11-05 21:33:00,72.8,67.0,29.88,SE,137,3.0,3.0,82,0.00,,,0.00,Wunderground v.1.15,2013-11-06 03:33:00,
2013-11-05 21:34:00,72.8,67.0,29.88,SSE,150,3.0,5.0,82,0.00,,,0.00,Wunderground v.1.15,2013-11-06 03:34:00,
2013-11-05 21:36:00,72.8,67.0,29.88,SE,137,3.0,5.0,82,0.00,,,0.00,Wunderground v.1.15,2013-11-06 03:36:00,
2013-11-05 21:42:00,72.8,67.3,29.88,SSE,160,4.0,4.0,83,0.00,,,0.00,Wunderground v.1.15,2013-11-06 03:42:00,
2013-11-05 21:43:00,72.8,67.3,29.88,SSE,157,4.0,4.0,83,0.00,,,0.00,Wunderground v.1.15,2013-11-06 03:43:00,
2013-11-05 21:44:00,72.8,67.3,29.88,SSE,157,4.0,4.0,83,0.00,,,0.00,Wunderground v.1.15,2013-11-06 03:44:00,
2013-11-05 21:52:00,72.8,67.3,29.88,SSE,158,3.0,4.0,83,0.00,,,0.00,Wunderground v.1.15,2013-11-06 03:52:00,
2013-11-05 21:53:00,72.8,67.3,29.88,SSE,158,3.0,4.0,83,0.00,,,0.00,Wunderground v.1.15,2013-11-06 03:53:00,
2013-11-05 21:54:00,72.8,67.7,29.88,South,169,3.0,4.0,84,0.00,,,0.00,Wunderground v.1.15,2013-11-06 03:54:00,
2013-11-05 21:58:00,72.8,67.7,29.88,SE,130,3.0,4.0,84,0.00,,,0.00,Wunderground v.1.15,2013-11-06 03:58:00,
2013-11-05 22:03:00,72.7,67.6,29.89,SSE,150,3.0,3.0,84,0.00,,,0.00,Wunderground v.1.15,2013-11-06 04:03:00,
2013-11-05 22:04:00,72.7,67.6,29.89,SE,140,3.0,3.0,84,0.00,,,0.00,Wunderground v.1.15,2013-11-06 04:04:00,
2013-11-05 22:05:00,72.7,67.6,29.89,SE,138,2.0,5.0,84,0.00,,,0.00,Wunderground v.1.15,2013-11-06 04:05:00,
2013-11-05 22:08:00,72.7,67.6,29.89,SSE,162,2.0,9.0,84,0.00,,,0.00,Wunderground v.1.15,2013-11-06 04:08:00,
2013-11-05 22:12:00,72.7,67.6,29.89,SSE,158,3.0,5.0,84,0.00,,,0.00,Wunderground v.1.15,2013-11-06 04:12:00,
2013-11-05 22:13:00,72.7,67.6,29.89,SSE,147,3.0,5.0,84,0.00,,,0.00,Wunderground v.1.15,2013-11-06 04:13:00,
2013-11-05 22:14:00,72.7,67.9,29.89,SSE,154,3.0,5.0,85,0.00,,,0.00,Wunderground v.1.15,2013-11-06 04:14:00,
2013-11-05 22:15:00,72.7,67.9,29.89,SSE,157,4.0,5.0,85,0.00,,,0.00,Wunderground v.1.15,2013-11-06 04:15:00,
2013-11-05 22:19:00,72.7,67.9,29.88,SSE,157,4.0,7.0,85,0.00,,,0.00,Wunderground v.1.15,2013-11-06 04:19:00,
2013-11-05 22:23:00,72.5,67.7,29.88,SE,133,4.0,4.0,85,0.00,,,0.00,Wunderground v.1.15,2013-11-06 04:23:00,
2013-11-05 22:24:00,72.5,67.7,29.88,SE,134,4.0,4.0,85,0.00,,,0.00,Wunderground v.1.15,2013-11-06 04:24:00,
2013-11-05 22:27:00,72.5,67.7,29.88,SE,144,3.0,6.0,85,0.00,,,0.00,Wunderground v.1.15,2013-11-06 04:27:00,
2013-11-05 22:28:00,72.5,67.7,29.88,SSE,150,3.0,6.0,85,0.00,,,0.00,Wunderground v.1.15,2013-11-06 04:28:00,
2013-11-05 22:32:00,72.5,67.7,29.89,SSE,168,2.0,5.0,85,0.00,,,0.00,Wunderground v.1.15,2013-11-06 04:32:00,
2013-11-05 22:34:00,72.5,67.7,29.89,SSE,152,2.0,5.0,85,0.00,,,0.00,Wunderground v.1.15,2013-11-06 04:34:00,
2013-11-05 22:36:00,72.5,67.7,29.89,SE,138,2.0,5.0,85,0.00,,,0.00,Wunderground v.1.15,2013-11-06 04:36:00,
2013-11-05 22:38:00,72.5,67.7,29.89,SE,141,2.0,5.0,85,0.00,,,0.00,Wunderground v.1.15,2013-11-06 04:38:00,
2013-11-05 22:39:00,72.5,67.7,29.89,SSE,148,2.0,5.0,85,0.00,,,0.00,Wunderground v.1.15,2013-11-06 04:39:00,
2013-11-05 22:42:00,72.5,67.7,29.89,SSE,148,2.0,8.0,85,0.00,,,0.00,Wunderground v.1.15,2013-11-06 04:42:00,
2013-11-05 22:43:00,72.5,67.7,29.89,SSE,150,3.0,8.0,85,0.00,,,0.00,Wunderground v.1.15,2013-11-06 04:43:00,
2013-11-05 22:45:00,72.5,67.7,29.89,SSE,157,3.0,8.0,85,0.00,,,0.00,Wunderground v.1.15,2013-11-06 04:45:00,
2013-11-05 22:46:00,72.5,67.7,29.89,South,189,2.0,8.0,85,0.00,,,0.00,Wunderground v.1.15,2013-11-06 04:46:00,
2013-11-05 22:53:00,72.3,67.9,29.89,SE,128,3.0,8.0,86,0.00,,,0.00,Wunderground v.1.15,2013-11-06 04:53:00,
2013-11-05 22:54:00,72.3,67.9,29.89,SSE,154,3.0,8.0,86,0.00,,,0.00,Wunderground v.1.15,2013-11-06 04:54:00,
2013-11-05 22:58:00,72.3,67.9,29.89,SSE,167,4.0,8.0,86,0.00,,,0.00,Wunderground v.1.15,2013-11-06 04:58:00,
2013-11-05 22:59:00,72.3,67.9,29.89,SE,138,4.0,8.0,86,0.00,,,0.00,Wunderground v.1.15,2013-11-06 04:59:00,
2013-11-05 23:02:00,72.3,67.9,29.89,SE,143,4.0,4.0,86,0.00,,,0.00,Wunderground v.1.15,2013-11-06 05:02:00,
2013-11-05 23:03:00,72.3,67.9,29.89,SE,137,3.0,4.0,86,0.00,,,0.00,Wunderground v.1.15,2013-11-06 05:03:00,
2013-11-05 23:04:00,72.3,67.9,29.89,SE,138,3.0,4.0,86,0.00,,,0.00,Wunderground v.1.15,2013-11-06 05:04:00,
2013-11-05 23:05:00,72.3,67.9,29.89,SE,138,3.0,4.0,86,0.00,,,0.00,Wunderground v.1.15,2013-11-06 05:05:00,
2013-11-05 23:09:00,72.3,67.9,29.89,South,181,2.0,6.0,86,0.00,,,0.00,Wunderground v.1.15,2013-11-06 05:09:00,
2013-11-05 23:13:00,72.3,67.9,29.89,South,178,2.0,2.0,86,0.00,,,0.00,Wunderground v.1.15,2013-11-06 05:13:00,
2013-11-05 23:14:00,72.3,67.9,29.89,SE,127,2.0,2.0,86,0.00,,,0.00,Wunderground v.1.15,2013-11-06 05:14:00,
2013-11-05 23:15:00,72.3,67.9,29.89,SE,130,2.0,3.0,86,0.00,,,0.00,Wunderground v.1.15,2013-11-06 05:15:00,
2013-11-05 23:16:00,72.3,67.9,29.89,SSE,168,3.0,3.0,86,0.00,,,0.00,Wunderground v.1.15,2013-11-06 05:16:00,
2013-11-05 23:17:00,72.3,68.2,29.89,SSE,155,3.0,3.0,87,0.00,,,0.00,Wunderground v.1.15,2013-11-06 05:17:00,
2013-11-05 23:22:00,72.3,68.2,29.89,South,172,2.0,3.0,87,0.00,,,0.00,Wunderground v.1.15,2013-11-06 05:22:00,
2013-11-05 23:23:00,72.3,68.2,29.89,South,172,3.0,3.0,87,0.00,,,0.00,Wunderground v.1.15,2013-11-06 05:23:00,
2013-11-05 23:25:00,72.3,68.2,29.89,South,172,3.0,5.0,87,0.00,,,0.00,Wunderground v.1.15,2013-11-06 05:25:00,
2013-11-05 23:28:00,72.3,68.2,29.89,South,181,3.0,5.0,87,0.00,,,0.00,Wunderground v.1.15,2013-11-06 05:28:00,
2013-11-05 23:29:00,72.3,68.2,29.89,SSE,165,3.0,5.0,87,0.00,,,0.00,Wunderground v.1.15,2013-11-06 05:29:00,
2013-11-05 23:33:00,72.3,68.2,29.88,SSE,165,3.0,6.0,87,0.00,,,0.00,Wunderground v.1.15,2013-11-06 05:33:00,
2013-11-05 23:34:00,72.3,68.2,29.88,SSE,164,3.0,6.0,87,0.00,,,0.00,Wunderground v.1.15,2013-11-06 05:34:00,
2013-11-05 23:35:00,72.3,68.2,29.88,SSE,164,2.0,6.0,87,0.00,,,0.00,Wunderground v.1.15,2013-11-06 05:35:00,
2013-11-05 23:36:00,72.3,68.2,29.88,SSE,161,2.0,6.0,87,0.00,,,0.00,Wunderground v.1.15,2013-11-06 05:36:00,
2013-11-05 23:39:00,72.3,68.5,29.88,SE,130,3.0,6.0,88,0.00,,,0.00,Wunderground v.1.15,2013-11-06 05:39:00,
2013-11-05 23:43:00,72.3,68.5,29.88,SE,143,4.0,6.0,88,0.00,,,0.00,Wunderground v.1.15,2013-11-06 05:43:00,
2013-11-05 23:44:00,72.3,68.5,29.88,SE,143,4.0,6.0,88,0.00,,,0.00,Wunderground v.1.15,2013-11-06 05:44:00,
2013-11-05 23:46:00,72.1,68.3,29.88,South,181,4.0,7.0,88,0.00,,,0.00,Wunderground v.1.15,2013-11-06 05:46:00,
2013-11-05 23:47:00,72.3,68.5,29.88,South,179,4.0,7.0,88,0.00,,,0.00,Wunderground v.1.15,2013-11-06 05:47:00,
2013-11-05 23:53:00,72.1,68.3,29.88,SE,137,4.0,5.0,88,0.00,,,0.00,Wunderground v.1.15,2013-11-06 05:53:00,
2013-11-05 23:54:00,72.1,68.3,29.88,SSE,160,4.0,6.0,88,0.00,,,0.00,Wunderground v.1.15,2013-11-06 05:54:00,
2013-11-05 23:57:00,72.1,68.3,29.88,SSE,168,4.0,6.0,88,0.00,,,0.00,Wunderground v.1.15,2013-11-06 05:57:00,
2013-11-05 23:58:00,72.3,68.5,29.88,SSW,213,4.0,6.0,88,0.00,,,0.00,Wunderground v.1.15,2013-11-06 05:58:00,
2013-11-05 23:59:00,72.1,68.3,29.88,SE,141,4.0,7.0,88,0.00,,,0.00,Wunderground v.1.15,2013-11-06 05:59:00,